<?xml version="1.0" encoding="UTF-8" standalone="no" ?>
<gpx xmlns="http://www.topografix.com/GPX/1/1" creator="MapSource 6.16.3" version="1.1" xmlns:xsi="http://www.w3.org/2001/XMLSchema-instance" xsi:schemaLocation="http://www.topografix.com/GPX/1/1 http://www.topografix.com/GPX/1/1/gpx.xsd">

  <metadata>
    <link href="http://www.garmin.com">
      <text>Garmin International</text>
    </link>
    <time>2016-09-07T05:26:34Z</time>
    <bounds maxlat="44.393906593322754" maxlon="11.246910095214844" minlat="44.361763000488281" minlon="11.187134720385075"/>
  </metadata>

  <trk>
    <name>ACTIVE LOG</name>
    <trkseg>
      <trkpt lat="44.393842220306396" lon="11.245944499969482">
        <ele>108</ele>
        <time>2004-12-08T08:10:20Z</time>
      </trkpt>
      <trkpt lat="44.393734931945801" lon="11.246480941772461">
        <ele>107</ele>
        <time>2004-12-08T08:10:35Z</time>
      </trkpt>
      <trkpt lat="44.393606185913086" lon="11.246910095214844">
        <ele>107</ele>
        <time>2004-12-08T08:10:45Z</time>
      </trkpt>
      <trkpt lat="44.392940998077393" lon="11.246609687805176">
        <ele>106</ele>
        <time>2004-12-08T08:11:05Z</time>
      </trkpt>
      <trkpt lat="44.391911029815674" lon="11.246137619018555">
        <ele>106</ele>
        <time>2004-12-08T08:11:33Z</time>
      </trkpt>
      <trkpt lat="44.39150333404541" lon="11.245922958478332">
        <ele>106</ele>
        <time>2004-12-08T08:11:43Z</time>
      </trkpt>
      <trkpt lat="44.391331672668457" lon="11.245901584625244">
        <ele>106</ele>
        <time>2004-12-08T08:11:47Z</time>
      </trkpt>
      <trkpt lat="44.391224384307861" lon="11.245858669281006">
        <ele>106</ele>
        <time>2004-12-08T08:11:50Z</time>
      </trkpt>
      <trkpt lat="44.390966892242432" lon="11.245644092559814">
        <ele>106</ele>
        <time>2004-12-08T08:11:57Z</time>
      </trkpt>
      <trkpt lat="44.390087127685547" lon="11.245279312133789">
        <ele>105</ele>
        <time>2004-12-08T08:12:18Z</time>
      </trkpt>
      <trkpt lat="44.389443397521973" lon="11.244935989379883">
        <ele>107</ele>
        <time>2004-12-08T08:12:36Z</time>
      </trkpt>
      <trkpt lat="44.388971328735352" lon="11.244356632232666">
        <ele>110</ele>
        <time>2004-12-08T08:12:54Z</time>
      </trkpt>
      <trkpt lat="44.388027191162109" lon="11.243197917938232">
        <ele>110</ele>
        <time>2004-12-08T08:13:26Z</time>
      </trkpt>
      <trkpt lat="44.387662410736084" lon="11.242682933807373">
        <ele>111</ele>
        <time>2004-12-08T08:13:38Z</time>
      </trkpt>
      <trkpt lat="44.387619495391846" lon="11.242554187774658">
        <ele>111</ele>
        <time>2004-12-08T08:13:41Z</time>
      </trkpt>
      <trkpt lat="44.387469291687012" lon="11.241352558135986">
        <ele>108</ele>
        <time>2004-12-08T08:14:00Z</time>
      </trkpt>
      <trkpt lat="44.387362003326416" lon="11.24051570892334">
        <ele>107</ele>
        <time>2004-12-08T08:14:12Z</time>
      </trkpt>
      <trkpt lat="44.386804103851318" lon="11.239163875579834">
        <ele>105</ele>
        <time>2004-12-08T08:14:33Z</time>
      </trkpt>
      <trkpt lat="44.386246204376221" lon="11.238284111022949">
        <ele>106</ele>
        <time>2004-12-08T08:14:53Z</time>
      </trkpt>
      <trkpt lat="44.385945796966553" lon="11.237855041399598">
        <ele>107</ele>
        <time>2004-12-08T08:15:08Z</time>
      </trkpt>
      <trkpt lat="44.385967338457704" lon="11.237726211547852">
        <ele>107</ele>
        <time>2004-12-08T08:15:14Z</time>
      </trkpt>
      <trkpt lat="44.385988712310791" lon="11.237382888793945">
        <ele>109</ele>
        <time>2004-12-08T08:15:27Z</time>
      </trkpt>
      <trkpt lat="44.385666763409972" lon="11.236932277679443">
        <ele>111</ele>
        <time>2004-12-08T08:15:48Z</time>
      </trkpt>
      <trkpt lat="44.385559558868408" lon="11.236546039581299">
        <ele>113</ele>
        <time>2004-12-08T08:16:04Z</time>
      </trkpt>
      <trkpt lat="44.385581016540527" lon="11.236181259155273">
        <ele>116</ele>
        <time>2004-12-08T08:16:18Z</time>
      </trkpt>
      <trkpt lat="44.385623931884766" lon="11.235687732696533">
        <ele>118</ele>
        <time>2004-12-08T08:16:36Z</time>
      </trkpt>
      <trkpt lat="44.3857741355896" lon="11.235387325286865">
        <ele>121</ele>
        <time>2004-12-08T08:16:51Z</time>
      </trkpt>
      <trkpt lat="44.385902881622314" lon="11.235129833221436">
        <ele>124</ele>
        <time>2004-12-08T08:17:04Z</time>
      </trkpt>
      <trkpt lat="44.386117458343506" lon="11.234700679779053">
        <ele>126</ele>
        <time>2004-12-08T08:17:26Z</time>
      </trkpt>
      <trkpt lat="44.38622466288507" lon="11.23427152633667">
        <ele>129</ele>
        <time>2004-12-08T08:17:45Z</time>
      </trkpt>
      <trkpt lat="44.386289119720459" lon="11.233885288238525">
        <ele>132</ele>
        <time>2004-12-08T08:18:02Z</time>
      </trkpt>
      <trkpt lat="44.386375034227967" lon="11.233391761779785">
        <ele>135</ele>
        <time>2004-12-08T08:18:26Z</time>
      </trkpt>
      <trkpt lat="44.386439323425293" lon="11.233112812042236">
        <ele>138</ele>
        <time>2004-12-08T08:18:39Z</time>
      </trkpt>
      <trkpt lat="44.386482238769531" lon="11.232790863141418">
        <ele>140</ele>
        <time>2004-12-08T08:18:54Z</time>
      </trkpt>
      <trkpt lat="44.386375034227967" lon="11.232705116271973">
        <ele>140</ele>
        <time>2004-12-08T08:19:01Z</time>
      </trkpt>
      <trkpt lat="44.386074459180236" lon="11.232469081878662">
        <ele>140</ele>
        <time>2004-12-08T08:19:17Z</time>
      </trkpt>
      <trkpt lat="44.38581713475287" lon="11.232318878173828">
        <ele>140</ele>
        <time>2004-12-08T08:19:28Z</time>
      </trkpt>
      <trkpt lat="44.385430812835693" lon="11.23201847076416">
        <ele>139</ele>
        <time>2004-12-08T08:19:44Z</time>
      </trkpt>
      <trkpt lat="44.384958660230041" lon="11.231653690338135">
        <ele>140</ele>
        <time>2004-12-08T08:20:04Z</time>
      </trkpt>
      <trkpt lat="44.384550964459777" lon="11.231353282928467">
        <ele>140</ele>
        <time>2004-12-08T08:20:22Z</time>
      </trkpt>
      <trkpt lat="44.384036064147949" lon="11.230988502502441">
        <ele>141</ele>
        <time>2004-12-08T08:20:46Z</time>
      </trkpt>
      <trkpt lat="44.383628368377686" lon="11.230688095092773">
        <ele>142</ele>
        <time>2004-12-08T08:21:05Z</time>
      </trkpt>
      <trkpt lat="44.383370876312256" lon="11.230580806732178">
        <ele>142</ele>
        <time>2004-12-08T08:21:17Z</time>
      </trkpt>
      <trkpt lat="44.383220672607422" lon="11.230237483978271">
        <ele>144</ele>
        <time>2004-12-08T08:21:32Z</time>
      </trkpt>
      <trkpt lat="44.38326358795166" lon="11.229872703552246">
        <ele>146</ele>
        <time>2004-12-08T08:21:48Z</time>
      </trkpt>
      <trkpt lat="44.383413791656494" lon="11.229636669158936">
        <ele>150</ele>
        <time>2004-12-08T08:22:02Z</time>
      </trkpt>
      <trkpt lat="44.383585536852479" lon="11.229357719421387">
        <ele>153</ele>
        <time>2004-12-08T08:22:18Z</time>
      </trkpt>
      <trkpt lat="44.383735740557313" lon="11.229143058881164">
        <ele>156</ele>
        <time>2004-12-08T08:22:30Z</time>
      </trkpt>
      <trkpt lat="44.383606910705566" lon="11.228756904602051">
        <ele>156</ele>
        <time>2004-12-08T08:22:44Z</time>
      </trkpt>
      <trkpt lat="44.383370876312256" lon="11.228134632110596">
        <ele>154</ele>
        <time>2004-12-08T08:22:59Z</time>
      </trkpt>
      <trkpt lat="44.382920265197754" lon="11.227469360455871">
        <ele>154</ele>
        <time>2004-12-08T08:23:14Z</time>
      </trkpt>
      <trkpt lat="44.382405281066895" lon="11.226804340258241">
        <ele>156</ele>
        <time>2004-12-08T08:23:35Z</time>
      </trkpt>
      <trkpt lat="44.381825923919678" lon="11.226053237915039">
        <ele>157</ele>
        <time>2004-12-08T08:24:00Z</time>
      </trkpt>
      <trkpt lat="44.381353938952088" lon="11.225495338439941">
        <ele>156</ele>
        <time>2004-12-08T08:24:18Z</time>
      </trkpt>
      <trkpt lat="44.38126802444458" lon="11.225409507751465">
        <ele>156</ele>
        <time>2004-12-08T08:24:21Z</time>
      </trkpt>
      <trkpt lat="44.381053363904357" lon="11.225152015686035">
        <ele>155</ele>
        <time>2004-12-08T08:24:27Z</time>
      </trkpt>
      <trkpt lat="44.380860328674316" lon="11.224701404571533">
        <ele>153</ele>
        <time>2004-12-08T08:24:35Z</time>
      </trkpt>
      <trkpt lat="44.380924701690674" lon="11.224250793457031">
        <ele>152</ele>
        <time>2004-12-08T08:24:41Z</time>
      </trkpt>
      <trkpt lat="44.381074905395508" lon="11.223735809326172">
        <ele>148</ele>
        <time>2004-12-08T08:24:48Z</time>
      </trkpt>
      <trkpt lat="44.381139278411865" lon="11.22352123260498">
        <ele>146</ele>
        <time>2004-12-08T08:24:51Z</time>
      </trkpt>
      <trkpt lat="44.381310939788818" lon="11.223392486572266">
        <ele>143</ele>
        <time>2004-12-08T08:24:56Z</time>
      </trkpt>
      <trkpt lat="44.381332397460938" lon="11.223349571228027">
        <ele>143</ele>
        <time>2004-12-08T08:24:58Z</time>
      </trkpt>
      <trkpt lat="44.381203735247254" lon="11.223113536834717">
        <ele>143</ele>
        <time>2004-12-08T08:25:07Z</time>
      </trkpt>
      <trkpt lat="44.380838871002197" lon="11.223177909851074">
        <ele>147</ele>
        <time>2004-12-08T08:25:22Z</time>
      </trkpt>
      <trkpt lat="44.380495464429259" lon="11.223564064130187">
        <ele>149</ele>
        <time>2004-12-08T08:25:42Z</time>
      </trkpt>
      <trkpt lat="44.380173683166504" lon="11.223864639177918">
        <ele>152</ele>
        <time>2004-12-08T08:25:58Z</time>
      </trkpt>
      <trkpt lat="44.379937564954162" lon="11.223886013031006">
        <ele>154</ele>
        <time>2004-12-08T08:26:11Z</time>
      </trkpt>
      <trkpt lat="44.379615783691406" lon="11.223671436309814">
        <ele>157</ele>
        <time>2004-12-08T08:26:27Z</time>
      </trkpt>
      <trkpt lat="44.379165172576904" lon="11.223092079162598">
        <ele>158</ele>
        <time>2004-12-08T08:26:51Z</time>
      </trkpt>
      <trkpt lat="44.378757476806641" lon="11.222620010375977">
        <ele>159</ele>
        <time>2004-12-08T08:27:13Z</time>
      </trkpt>
      <trkpt lat="44.3785644415766" lon="11.222169399261475">
        <ele>159</ele>
        <time>2004-12-08T08:27:28Z</time>
      </trkpt>
      <trkpt lat="44.3785644415766" lon="11.221997737884521">
        <ele>159</ele>
        <time>2004-12-08T08:27:32Z</time>
      </trkpt>
      <trkpt lat="44.378478527069092" lon="11.221868991851807">
        <ele>159</ele>
        <time>2004-12-08T08:27:37Z</time>
      </trkpt>
      <trkpt lat="44.378070831298828" lon="11.221633041277528">
        <ele>161</ele>
        <time>2004-12-08T08:27:55Z</time>
      </trkpt>
      <trkpt lat="44.377856338396668" lon="11.221482837572694">
        <ele>164</ele>
        <time>2004-12-08T08:28:06Z</time>
      </trkpt>
      <trkpt lat="44.377405559644103" lon="11.221246719360352">
        <ele>166</ele>
        <time>2004-12-08T08:28:26Z</time>
      </trkpt>
      <trkpt lat="44.377233982086182" lon="11.220903396606445">
        <ele>168</ele>
        <time>2004-12-08T08:28:40Z</time>
      </trkpt>
      <trkpt lat="44.377105236053467" lon="11.220581531524658">
        <ele>171</ele>
        <time>2004-12-08T08:28:52Z</time>
      </trkpt>
      <trkpt lat="44.376718997955322" lon="11.220238208770752">
        <ele>174</ele>
        <time>2004-12-08T08:29:14Z</time>
      </trkpt>
      <trkpt lat="44.376439964398742" lon="11.219959259033203">
        <ele>174</ele>
        <time>2004-12-08T08:29:30Z</time>
      </trkpt>
      <trkpt lat="44.376053810119629" lon="11.219658935442567">
        <ele>176</ele>
        <time>2004-12-08T08:29:51Z</time>
      </trkpt>
      <trkpt lat="44.375796318054199" lon="11.219444274902344">
        <ele>179</ele>
        <time>2004-12-08T08:30:07Z</time>
      </trkpt>
      <trkpt lat="44.375603199005127" lon="11.219272613525391">
        <ele>182</ele>
        <time>2004-12-08T08:30:20Z</time>
      </trkpt>
      <trkpt lat="44.375367164611816" lon="11.219079494476318">
        <ele>185</ele>
        <time>2004-12-08T08:30:37Z</time>
      </trkpt>
      <trkpt lat="44.375238418579102" lon="11.219015121459961">
        <ele>188</ele>
        <time>2004-12-08T08:30:45Z</time>
      </trkpt>
      <trkpt lat="44.374959468841553" lon="11.218950664624572">
        <ele>191</ele>
        <time>2004-12-08T08:31:00Z</time>
      </trkpt>
      <trkpt lat="44.374830722808838" lon="11.218886375427246">
        <ele>194</ele>
        <time>2004-12-08T08:31:09Z</time>
      </trkpt>
      <trkpt lat="44.374594688415527" lon="11.218864917755127">
        <ele>197</ele>
        <time>2004-12-08T08:31:23Z</time>
      </trkpt>
      <trkpt lat="44.374315738677979" lon="11.21877908706665">
        <ele>200</ele>
        <time>2004-12-08T08:31:39Z</time>
      </trkpt>
      <trkpt lat="44.37403678894043" lon="11.218628883361816">
        <ele>204</ele>
        <time>2004-12-08T08:31:58Z</time>
      </trkpt>
      <trkpt lat="44.373907959088683" lon="11.218349933624268">
        <ele>207</ele>
        <time>2004-12-08T08:32:13Z</time>
      </trkpt>
      <trkpt lat="44.373865127563477" lon="11.21824256144464">
        <ele>210</ele>
        <time>2004-12-08T08:32:20Z</time>
      </trkpt>
      <trkpt lat="44.373822212219238" lon="11.218156814575195">
        <ele>212</ele>
        <time>2004-12-08T08:32:25Z</time>
      </trkpt>
      <trkpt lat="44.373800838366151" lon="11.217899322509766">
        <ele>215</ele>
        <time>2004-12-08T08:32:38Z</time>
      </trkpt>
      <trkpt lat="44.373843669891357" lon="11.217491626739502">
        <ele>218</ele>
        <time>2004-12-08T08:32:59Z</time>
      </trkpt>
      <trkpt lat="44.373929500579834" lon="11.217191219329834">
        <ele>221</ele>
        <time>2004-12-08T08:33:17Z</time>
      </trkpt>
      <trkpt lat="44.373972415924072" lon="11.217019641771913">
        <ele>224</ele>
        <time>2004-12-08T08:33:27Z</time>
      </trkpt>
      <trkpt lat="44.373993873596191" lon="11.216998100280762">
        <ele>225</ele>
        <time>2004-12-08T08:33:28Z</time>
      </trkpt>
      <trkpt lat="44.374251365661621" lon="11.216697692871094">
        <ele>227</ele>
        <time>2004-12-08T08:33:56Z</time>
      </trkpt>
      <trkpt lat="44.37427282333374" lon="11.21654748916626">
        <ele>229</ele>
        <time>2004-12-08T08:34:04Z</time>
      </trkpt>
      <trkpt lat="44.374315738677979" lon="11.216375827789307">
        <ele>231</ele>
        <time>2004-12-08T08:34:11Z</time>
      </trkpt>
      <trkpt lat="44.374294281005859" lon="11.216332912445068">
        <ele>231</ele>
        <time>2004-12-08T08:34:28Z</time>
      </trkpt>
      <trkpt lat="44.374208534136415" lon="11.216311538591981">
        <ele>227</ele>
        <time>2004-12-08T08:35:03Z</time>
      </trkpt>
      <trkpt lat="44.374208534136415" lon="11.21628999710083">
        <ele>221</ele>
        <time>2004-12-08T08:35:04Z</time>
      </trkpt>
      <trkpt lat="44.374208534136415" lon="11.21628999710083">
        <ele>231</ele>
        <time>2004-12-08T08:35:05Z</time>
      </trkpt>
      <trkpt lat="44.374208534136415" lon="11.21628999710083">
        <ele>230</ele>
        <time>2004-12-08T08:35:06Z</time>
      </trkpt>
      <trkpt lat="44.374122619628906" lon="11.216311538591981">
        <ele>230</ele>
        <time>2004-12-08T08:35:37Z</time>
      </trkpt>
      <trkpt lat="44.374122619628906" lon="11.216247081756592">
        <ele>230</ele>
        <time>2004-12-08T08:36:07Z</time>
      </trkpt>
      <trkpt lat="44.374251365661621" lon="11.216225624084473">
        <ele>231</ele>
        <time>2004-12-08T08:37:18Z</time>
      </trkpt>
      <trkpt lat="44.374315738677979" lon="11.21628999710083">
        <ele>231</ele>
        <time>2004-12-08T08:37:23Z</time>
      </trkpt>
      <trkpt lat="44.374337196350098" lon="11.216311538591981">
        <ele>231</ele>
        <time>2004-12-08T08:37:34Z</time>
      </trkpt>
      <trkpt lat="44.374337196350098" lon="11.216311538591981">
        <ele>233</ele>
        <time>2004-12-08T08:38:39Z</time>
      </trkpt>
      <trkpt lat="44.374358737841249" lon="11.216375827789307">
        <ele>235</ele>
        <time>2004-12-08T08:38:42Z</time>
      </trkpt>
      <trkpt lat="44.374401569366455" lon="11.216483116149902">
        <ele>238</ele>
        <time>2004-12-08T08:38:50Z</time>
      </trkpt>
      <trkpt lat="44.374401569366455" lon="11.216504573822021">
        <ele>238</ele>
        <time>2004-12-08T08:38:51Z</time>
      </trkpt>
      <trkpt lat="44.374423027038574" lon="11.216633319854736">
        <ele>240</ele>
        <time>2004-12-08T08:38:57Z</time>
      </trkpt>
      <trkpt lat="44.374315738677979" lon="11.216998100280762">
        <ele>243</ele>
        <time>2004-12-08T08:39:15Z</time>
      </trkpt>
      <trkpt lat="44.374294281005859" lon="11.217148303985596">
        <ele>244</ele>
        <time>2004-12-08T08:39:22Z</time>
      </trkpt>
      <trkpt lat="44.374358737841249" lon="11.217362880706787">
        <ele>248</ele>
        <time>2004-12-08T08:39:32Z</time>
      </trkpt>
      <trkpt lat="44.374380111694336" lon="11.217405796051025">
        <ele>250</ele>
        <time>2004-12-08T08:39:35Z</time>
      </trkpt>
      <trkpt lat="44.374487400054932" lon="11.217641830444336">
        <ele>253</ele>
        <time>2004-12-08T08:39:51Z</time>
      </trkpt>
      <trkpt lat="44.3747878074646" lon="11.217770576477051">
        <ele>252</ele>
        <time>2004-12-08T08:40:11Z</time>
      </trkpt>
      <trkpt lat="44.375431537628174" lon="11.217963695526123">
        <ele>252</ele>
        <time>2004-12-08T08:40:46Z</time>
      </trkpt>
      <trkpt lat="44.375753402709961" lon="11.217920780181885">
        <ele>256</ele>
        <time>2004-12-08T08:41:16Z</time>
      </trkpt>
      <trkpt lat="44.375967979431152" lon="11.217877864837646">
        <ele>259</ele>
        <time>2004-12-08T08:41:44Z</time>
      </trkpt>
      <trkpt lat="44.37626838684082" lon="11.216976558789611">
        <ele>261</ele>
        <time>2004-12-08T08:41:51Z</time>
      </trkpt>
      <trkpt lat="44.376418590545654" lon="11.217041015625">
        <ele>263</ele>
        <time>2004-12-08T08:42:02Z</time>
      </trkpt>
      <trkpt lat="44.376654624938965" lon="11.217405796051025">
        <ele>266</ele>
        <time>2004-12-08T08:42:28Z</time>
      </trkpt>
      <trkpt lat="44.376761913299561" lon="11.21757754124701">
        <ele>268</ele>
        <time>2004-12-08T08:42:44Z</time>
      </trkpt>
      <trkpt lat="44.376847660169005" lon="11.217641830444336">
        <ele>272</ele>
        <time>2004-12-08T08:42:52Z</time>
      </trkpt>
      <trkpt lat="44.377040863037109" lon="11.217598915100098">
        <ele>274</ele>
        <time>2004-12-08T08:43:12Z</time>
      </trkpt>
      <trkpt lat="44.37753438949585" lon="11.217169761657715">
        <ele>277</ele>
        <time>2004-12-08T08:43:58Z</time>
      </trkpt>
      <trkpt lat="44.377706134691834" lon="11.216826438903809">
        <ele>280</ele>
        <time>2004-12-08T08:44:22Z</time>
      </trkpt>
      <trkpt lat="44.37777042388916" lon="11.216633319854736">
        <ele>283</ele>
        <time>2004-12-08T08:44:34Z</time>
      </trkpt>
      <trkpt lat="44.37777042388916" lon="11.216526031494141">
        <ele>284</ele>
        <time>2004-12-08T08:44:39Z</time>
      </trkpt>
      <trkpt lat="44.377727508544922" lon="11.216075420379639">
        <ele>287</ele>
        <time>2004-12-08T08:45:02Z</time>
      </trkpt>
      <trkpt lat="44.377684593200684" lon="11.215775012969971">
        <ele>290</ele>
        <time>2004-12-08T08:45:20Z</time>
      </trkpt>
      <trkpt lat="44.377706134691834" lon="11.215603435412049">
        <ele>292</ele>
        <time>2004-12-08T08:45:30Z</time>
      </trkpt>
      <trkpt lat="44.377899169921875" lon="11.215431690216064">
        <ele>295</ele>
        <time>2004-12-08T08:45:47Z</time>
      </trkpt>
      <trkpt lat="44.377920627593994" lon="11.215431690216064">
        <ele>296</ele>
        <time>2004-12-08T08:45:50Z</time>
      </trkpt>
      <trkpt lat="44.378070831298828" lon="11.215410232543945">
        <ele>299</ele>
        <time>2004-12-08T08:46:02Z</time>
      </trkpt>
      <trkpt lat="44.37828540802002" lon="11.215496063232422">
        <ele>300</ele>
        <time>2004-12-08T08:46:30Z</time>
      </trkpt>
      <trkpt lat="44.378371238708496" lon="11.215753639116883">
        <ele>300</ele>
        <time>2004-12-08T08:49:07Z</time>
      </trkpt>
      <trkpt lat="44.378499984741211" lon="11.215903759002686">
        <ele>301</ele>
        <time>2004-12-08T08:49:30Z</time>
      </trkpt>
      <trkpt lat="44.378628730773926" lon="11.215946674346924">
        <ele>303</ele>
        <time>2004-12-08T08:49:47Z</time>
      </trkpt>
      <trkpt lat="44.378650188446045" lon="11.215946674346924">
        <ele>304</ele>
        <time>2004-12-08T08:49:49Z</time>
      </trkpt>
      <trkpt lat="44.378736019134521" lon="11.215903759002686">
        <ele>306</ele>
        <time>2004-12-08T08:49:58Z</time>
      </trkpt>
      <trkpt lat="44.378929138183594" lon="11.215839385986328">
        <ele>309</ele>
        <time>2004-12-08T08:50:18Z</time>
      </trkpt>
      <trkpt lat="44.379057884216309" lon="11.215775012969971">
        <ele>312</ele>
        <time>2004-12-08T08:50:32Z</time>
      </trkpt>
      <trkpt lat="44.379208087921143" lon="11.215624809265137">
        <ele>315</ele>
        <time>2004-12-08T08:50:49Z</time>
      </trkpt>
      <trkpt lat="44.379208087921143" lon="11.215624809265137">
        <ele>316</ele>
        <time>2004-12-08T08:50:50Z</time>
      </trkpt>
      <trkpt lat="44.37922946177423" lon="11.215581893920898">
        <ele>317</ele>
        <time>2004-12-08T08:50:53Z</time>
      </trkpt>
      <trkpt lat="44.379208087921143" lon="11.21553897857666">
        <ele>318</ele>
        <time>2004-12-08T08:50:56Z</time>
      </trkpt>
      <trkpt lat="44.379186630249023" lon="11.215474605560303">
        <ele>319</ele>
        <time>2004-12-08T08:51:00Z</time>
      </trkpt>
      <trkpt lat="44.378993511199951" lon="11.215260028839111">
        <ele>323</ele>
        <time>2004-12-08T08:51:15Z</time>
      </trkpt>
      <trkpt lat="44.378843307495117" lon="11.215109825134277">
        <ele>325</ele>
        <time>2004-12-08T08:51:32Z</time>
      </trkpt>
      <trkpt lat="44.378671562299132" lon="11.214916706085205">
        <ele>327</ele>
        <time>2004-12-08T08:51:50Z</time>
      </trkpt>
      <trkpt lat="44.378671562299132" lon="11.214895164594054">
        <ele>326</ele>
        <time>2004-12-08T08:51:51Z</time>
      </trkpt>
      <trkpt lat="44.378607273101807" lon="11.214766502380371">
        <ele>327</ele>
        <time>2004-12-08T08:52:00Z</time>
      </trkpt>
      <trkpt lat="44.378435611724854" lon="11.21455192565918">
        <ele>329</ele>
        <time>2004-12-08T08:52:21Z</time>
      </trkpt>
      <trkpt lat="44.378242492675781" lon="11.214315891265869">
        <ele>332</ele>
        <time>2004-12-08T08:52:42Z</time>
      </trkpt>
      <trkpt lat="44.378221035003662" lon="11.214230060577393">
        <ele>332</ele>
        <time>2004-12-08T08:52:46Z</time>
      </trkpt>
      <trkpt lat="44.378199577331543" lon="11.213929736986756">
        <ele>335</ele>
        <time>2004-12-08T08:53:05Z</time>
      </trkpt>
      <trkpt lat="44.378392696380615" lon="11.213629161939025">
        <ele>337</ele>
        <time>2004-12-08T08:53:27Z</time>
      </trkpt>
      <trkpt lat="44.378628730773926" lon="11.213221466168761">
        <ele>339</ele>
        <time>2004-12-08T08:53:49Z</time>
      </trkpt>
      <trkpt lat="44.378843307495117" lon="11.21279239654541">
        <ele>339</ele>
        <time>2004-12-08T08:54:10Z</time>
      </trkpt>
      <trkpt lat="44.379079341888428" lon="11.212427616119385">
        <ele>342</ele>
        <time>2004-12-08T08:54:28Z</time>
      </trkpt>
      <trkpt lat="44.379122341051698" lon="11.211977005004883">
        <ele>345</ele>
        <time>2004-12-08T08:54:48Z</time>
      </trkpt>
      <trkpt lat="44.379122341051698" lon="11.211419105529785">
        <ele>348</ele>
        <time>2004-12-08T08:55:12Z</time>
      </trkpt>
      <trkpt lat="44.379143714904785" lon="11.210947036743164">
        <ele>351</ele>
        <time>2004-12-08T08:55:32Z</time>
      </trkpt>
      <trkpt lat="44.379143714904785" lon="11.210625171661377">
        <ele>352</ele>
        <time>2004-12-08T08:55:48Z</time>
      </trkpt>
      <trkpt lat="44.37922946177423" lon="11.210453510284424">
        <ele>360</ele>
        <time>2005-02-05T08:51:33Z</time>
      </trkpt>
      <trkpt lat="44.379358291625977" lon="11.209959983825684">
        <ele>360</ele>
        <time>2005-02-05T08:51:52Z</time>
      </trkpt>
      <trkpt lat="44.379551410675049" lon="11.209380626678467">
        <ele>360</ele>
        <time>2005-02-05T08:52:13Z</time>
      </trkpt>
      <trkpt lat="44.379830360412598" lon="11.208908641710877">
        <ele>361</ele>
        <time>2005-02-05T08:52:34Z</time>
      </trkpt>
      <trkpt lat="44.380195140838623" lon="11.208586692810059">
        <ele>362</ele>
        <time>2005-02-05T08:52:53Z</time>
      </trkpt>
      <trkpt lat="44.380474090576172" lon="11.208178997039795">
        <ele>363</ele>
        <time>2005-02-05T08:53:12Z</time>
      </trkpt>
      <trkpt lat="44.380731582641602" lon="11.207470893859863">
        <ele>364</ele>
        <time>2005-02-05T08:53:37Z</time>
      </trkpt>
      <trkpt lat="44.380860328674316" lon="11.206827163696289">
        <ele>367</ele>
        <time>2005-02-05T08:54:01Z</time>
      </trkpt>
      <trkpt lat="44.380817413330078" lon="11.206505298614502">
        <ele>371</ele>
        <time>2005-02-05T08:54:15Z</time>
      </trkpt>
      <trkpt lat="44.380817413330078" lon="11.206483840942383">
        <ele>371</ele>
        <time>2005-02-05T08:54:16Z</time>
      </trkpt>
      <trkpt lat="44.380688667297363" lon="11.206204891204834">
        <ele>374</ele>
        <time>2005-02-05T08:54:31Z</time>
      </trkpt>
      <trkpt lat="44.380688667297363" lon="11.205925941467285">
        <ele>377</ele>
        <time>2005-02-05T08:54:46Z</time>
      </trkpt>
      <trkpt lat="44.380688667297363" lon="11.205861568450928">
        <ele>378</ele>
        <time>2005-02-05T08:54:50Z</time>
      </trkpt>
      <trkpt lat="44.380667209625244" lon="11.205646991729736">
        <ele>381</ele>
        <time>2005-02-05T08:55:02Z</time>
      </trkpt>
      <trkpt lat="44.380667209625244" lon="11.205625534057617">
        <ele>382</ele>
        <time>2005-02-05T08:55:03Z</time>
      </trkpt>
      <trkpt lat="44.380538463592529" lon="11.205367958173156">
        <ele>385</ele>
        <time>2005-02-05T08:55:22Z</time>
      </trkpt>
      <trkpt lat="44.3802809715271" lon="11.205217838287354">
        <ele>387</ele>
        <time>2005-02-05T08:55:42Z</time>
      </trkpt>
      <trkpt lat="44.379916191101074" lon="11.205174922943115">
        <ele>388</ele>
        <time>2005-02-05T08:56:04Z</time>
      </trkpt>
      <trkpt lat="44.379572868347168" lon="11.205153465270996">
        <ele>391</ele>
        <time>2005-02-05T08:56:27Z</time>
      </trkpt>
      <trkpt lat="44.379422664642334" lon="11.205089092254639">
        <ele>394</ele>
        <time>2005-02-05T08:56:40Z</time>
      </trkpt>
      <trkpt lat="44.379251003265381" lon="11.205024719238281">
        <ele>398</ele>
        <time>2005-02-05T08:56:56Z</time>
      </trkpt>
      <trkpt lat="44.379036426544189" lon="11.205174922943115">
        <ele>390</ele>
        <time>2004-12-08T09:03:05Z</time>
      </trkpt>
      <trkpt lat="44.378950595855713" lon="11.205367958173156">
        <ele>393</ele>
        <time>2004-12-08T09:03:22Z</time>
      </trkpt>
      <trkpt lat="44.378886222839355" lon="11.205453872680664">
        <ele>395</ele>
        <time>2004-12-08T09:03:32Z</time>
      </trkpt>
      <trkpt lat="44.378843307495117" lon="11.205432415008545">
        <ele>396</ele>
        <time>2004-12-08T09:03:38Z</time>
      </trkpt>
      <trkpt lat="44.378800392150879" lon="11.205153465270996">
        <ele>399</ele>
        <time>2004-12-08T09:03:56Z</time>
      </trkpt>
      <trkpt lat="44.378800392150879" lon="11.20506763458252">
        <ele>400</ele>
        <time>2004-12-08T09:04:02Z</time>
      </trkpt>
      <trkpt lat="44.378821766003966" lon="11.20485314168036">
        <ele>403</ele>
        <time>2004-12-08T09:04:19Z</time>
      </trkpt>
      <trkpt lat="44.378821766003966" lon="11.204831600189209">
        <ele>403</ele>
        <time>2004-12-08T09:04:20Z</time>
      </trkpt>
      <trkpt lat="44.378757476806641" lon="11.204638481140137">
        <ele>405</ele>
        <time>2004-12-08T09:04:37Z</time>
      </trkpt>
      <trkpt lat="44.378693103790283" lon="11.204509735107422">
        <ele>408</ele>
        <time>2004-12-08T09:04:49Z</time>
      </trkpt>
      <trkpt lat="44.378671562299132" lon="11.204445362091064">
        <ele>409</ele>
        <time>2004-12-08T09:04:55Z</time>
      </trkpt>
      <trkpt lat="44.378693103790283" lon="11.204230785369873">
        <ele>412</ele>
        <time>2004-12-08T09:05:12Z</time>
      </trkpt>
      <trkpt lat="44.378714561462402" lon="11.20405912399292">
        <ele>415</ele>
        <time>2004-12-08T09:05:25Z</time>
      </trkpt>
      <trkpt lat="44.378714561462402" lon="11.203780174255371">
        <ele>419</ele>
        <time>2004-12-08T09:05:48Z</time>
      </trkpt>
      <trkpt lat="44.378714561462402" lon="11.203758716583252">
        <ele>419</ele>
        <time>2004-12-08T09:05:49Z</time>
      </trkpt>
      <trkpt lat="44.378671562299132" lon="11.203651428222656">
        <ele>421</ele>
        <time>2004-12-08T09:05:59Z</time>
      </trkpt>
      <trkpt lat="44.378478527069092" lon="11.203501224517822">
        <ele>425</ele>
        <time>2004-12-08T09:06:20Z</time>
      </trkpt>
      <trkpt lat="44.378371238708496" lon="11.203372478485107">
        <ele>427</ele>
        <time>2004-12-08T09:06:32Z</time>
      </trkpt>
      <trkpt lat="44.378264034166932" lon="11.203243732452393">
        <ele>430</ele>
        <time>2004-12-08T09:06:45Z</time>
      </trkpt>
      <trkpt lat="44.378178119659424" lon="11.202943325042725">
        <ele>434</ele>
        <time>2004-12-08T09:07:03Z</time>
      </trkpt>
      <trkpt lat="44.378135204315186" lon="11.202750205993652">
        <ele>437</ele>
        <time>2004-12-08T09:07:14Z</time>
      </trkpt>
      <trkpt lat="44.378092288970947" lon="11.202664375305176">
        <ele>438</ele>
        <time>2004-12-08T09:07:21Z</time>
      </trkpt>
      <trkpt lat="44.378049373626709" lon="11.202621459960938">
        <ele>438</ele>
        <time>2004-12-08T09:07:25Z</time>
      </trkpt>
      <trkpt lat="44.377834796905518" lon="11.202707290649414">
        <ele>441</ele>
        <time>2004-12-08T09:07:41Z</time>
      </trkpt>
      <trkpt lat="44.377620220184326" lon="11.202750205993652">
        <ele>443</ele>
        <time>2004-12-08T09:07:59Z</time>
      </trkpt>
      <trkpt lat="44.377577304840088" lon="11.202664375305176">
        <ele>444</ele>
        <time>2004-12-08T09:08:06Z</time>
      </trkpt>
      <trkpt lat="44.377598762512207" lon="11.202664375305176">
        <ele>444</ele>
        <time>2004-12-08T09:08:08Z</time>
      </trkpt>
      <trkpt lat="44.377663135528564" lon="11.202642917633057">
        <ele>445</ele>
        <time>2004-12-08T09:08:14Z</time>
      </trkpt>
      <trkpt lat="44.377791881561279" lon="11.202514171600342">
        <ele>448</ele>
        <time>2004-12-08T09:08:27Z</time>
      </trkpt>
      <trkpt lat="44.378006458282471" lon="11.202278137207031">
        <ele>451</ele>
        <time>2004-12-08T09:08:50Z</time>
      </trkpt>
      <trkpt lat="44.378199577331543" lon="11.20206356048584">
        <ele>455</ele>
        <time>2004-12-08T09:09:11Z</time>
      </trkpt>
      <trkpt lat="44.378371238708496" lon="11.20206356048584">
        <ele>456</ele>
        <time>2004-12-08T09:09:25Z</time>
      </trkpt>
      <trkpt lat="44.3785644415766" lon="11.202321136370301">
        <ele>460</ele>
        <time>2004-12-08T09:09:46Z</time>
      </trkpt>
      <trkpt lat="44.378800392150879" lon="11.202385425567627">
        <ele>463</ele>
        <time>2004-12-08T09:10:04Z</time>
      </trkpt>
      <trkpt lat="44.378929138183594" lon="11.202363967895508">
        <ele>466</ele>
        <time>2004-12-08T09:10:14Z</time>
      </trkpt>
      <trkpt lat="44.378993511199951" lon="11.202256679534912">
        <ele>468</ele>
        <time>2004-12-08T09:10:25Z</time>
      </trkpt>
      <trkpt lat="44.379143714904785" lon="11.20202056132257">
        <ele>472</ele>
        <time>2004-12-08T09:10:42Z</time>
      </trkpt>
      <trkpt lat="44.379251003265381" lon="11.201913440600038">
        <ele>475</ele>
        <time>2004-12-08T09:10:52Z</time>
      </trkpt>
      <trkpt lat="44.379251003265381" lon="11.201891899108887">
        <ele>475</ele>
        <time>2004-12-08T09:10:53Z</time>
      </trkpt>
      <trkpt lat="44.379336833953857" lon="11.201741695404053">
        <ele>478</ele>
        <time>2004-12-08T09:11:09Z</time>
      </trkpt>
      <trkpt lat="44.379465579986572" lon="11.201484203338623">
        <ele>482</ele>
        <time>2004-12-08T09:11:32Z</time>
      </trkpt>
      <trkpt lat="44.379701614379883" lon="11.201054966077209">
        <ele>489</ele>
        <time>2004-12-08T09:12:03Z</time>
      </trkpt>
      <trkpt lat="44.379830360412598" lon="11.200776100158691">
        <ele>492</ele>
        <time>2004-12-08T09:12:17Z</time>
      </trkpt>
      <trkpt lat="44.379894733428955" lon="11.200582981109619">
        <ele>495</ele>
        <time>2004-12-08T09:12:40Z</time>
      </trkpt>
      <trkpt lat="44.380087936297059" lon="11.200454235076904">
        <ele>499</ele>
        <time>2004-12-08T09:12:56Z</time>
      </trkpt>
      <trkpt lat="44.380109310150146" lon="11.200454235076904">
        <ele>499</ele>
        <time>2004-12-08T09:12:58Z</time>
      </trkpt>
      <trkpt lat="44.380366802215576" lon="11.200132369995117">
        <ele>503</ele>
        <time>2004-12-08T09:13:21Z</time>
      </trkpt>
      <trkpt lat="44.380495464429259" lon="11.199939334765077">
        <ele>506</ele>
        <time>2004-12-08T09:13:35Z</time>
      </trkpt>
      <trkpt lat="44.380624294281006" lon="11.199896335601807">
        <ele>509</ele>
        <time>2004-12-08T09:13:51Z</time>
      </trkpt>
      <trkpt lat="44.380667209625244" lon="11.199853420257568">
        <ele>511</ele>
        <time>2004-12-08T09:13:56Z</time>
      </trkpt>
      <trkpt lat="44.380796039476991" lon="11.199746131896973">
        <ele>514</ele>
        <time>2004-12-08T09:14:05Z</time>
      </trkpt>
      <trkpt lat="44.380838871002197" lon="11.199681758880615">
        <ele>516</ele>
        <time>2004-12-08T09:14:09Z</time>
      </trkpt>
      <trkpt lat="44.380946159362793" lon="11.19957447052002">
        <ele>519</ele>
        <time>2004-12-08T09:14:17Z</time>
      </trkpt>
      <trkpt lat="44.38103199005127" lon="11.199488639831543">
        <ele>521</ele>
        <time>2004-12-08T09:14:24Z</time>
      </trkpt>
      <trkpt lat="44.381117820739746" lon="11.199402809143066">
        <ele>524</ele>
        <time>2004-12-08T09:14:31Z</time>
      </trkpt>
      <trkpt lat="44.381117820739746" lon="11.199402809143066">
        <ele>525</ele>
        <time>2004-12-08T09:14:32Z</time>
      </trkpt>
      <trkpt lat="44.381160736083984" lon="11.19931697845459">
        <ele>524</ele>
        <time>2004-12-08T09:19:54Z</time>
      </trkpt>
      <trkpt lat="44.381160736083984" lon="11.199252605438232">
        <ele>525</ele>
        <time>2004-12-08T09:21:26Z</time>
      </trkpt>
      <trkpt lat="44.381117820739746" lon="11.199274063110352">
        <ele>525</ele>
        <time>2004-12-08T09:24:12Z</time>
      </trkpt>
      <trkpt lat="44.380924701690674" lon="11.19931697845459">
        <ele>528</ele>
        <time>2004-12-08T09:24:25Z</time>
      </trkpt>
      <trkpt lat="44.380881786346436" lon="11.199295520782471">
        <ele>529</ele>
        <time>2004-12-08T09:24:30Z</time>
      </trkpt>
      <trkpt lat="44.380688667297363" lon="11.199295520782471">
        <ele>532</ele>
        <time>2004-12-08T09:24:45Z</time>
      </trkpt>
      <trkpt lat="44.380452632904053" lon="11.199274063110352">
        <ele>536</ele>
        <time>2004-12-08T09:25:06Z</time>
      </trkpt>
      <trkpt lat="44.38025951385498" lon="11.199295520782471">
        <ele>539</ele>
        <time>2004-12-08T09:25:25Z</time>
      </trkpt>
      <trkpt lat="44.380238140001893" lon="11.199295520782471">
        <ele>539</ele>
        <time>2004-12-08T09:25:28Z</time>
      </trkpt>
      <trkpt lat="44.380152225494385" lon="11.19931697845459">
        <ele>539</ele>
        <time>2004-12-08T09:25:35Z</time>
      </trkpt>
      <trkpt lat="44.379937564954162" lon="11.199295520782471">
        <ele>541</ele>
        <time>2004-12-08T09:25:57Z</time>
      </trkpt>
      <trkpt lat="44.379658699035645" lon="11.199209690093994">
        <ele>540</ele>
        <time>2004-12-08T09:26:17Z</time>
      </trkpt>
      <trkpt lat="44.379508495330811" lon="11.198995113372803">
        <ele>543</ele>
        <time>2004-12-08T09:26:32Z</time>
      </trkpt>
      <trkpt lat="44.379379665479064" lon="11.198844909667969">
        <ele>546</ele>
        <time>2004-12-08T09:26:46Z</time>
      </trkpt>
      <trkpt lat="44.379208087921143" lon="11.198694705963135">
        <ele>549</ele>
        <time>2004-12-08T09:27:06Z</time>
      </trkpt>
      <trkpt lat="44.379100799560547" lon="11.198651790618896">
        <ele>551</ele>
        <time>2004-12-08T09:27:17Z</time>
      </trkpt>
      <trkpt lat="44.378929138183594" lon="11.198694705963135">
        <ele>554</ele>
        <time>2004-12-08T09:27:35Z</time>
      </trkpt>
      <trkpt lat="44.378714561462402" lon="11.198759078979492">
        <ele>556</ele>
        <time>2004-12-08T09:27:55Z</time>
      </trkpt>
      <trkpt lat="44.378650188446045" lon="11.198780536651611">
        <ele>557</ele>
        <time>2004-12-08T09:28:02Z</time>
      </trkpt>
      <trkpt lat="44.378650188446045" lon="11.198737621307373">
        <ele>558</ele>
        <time>2004-12-08T09:28:06Z</time>
      </trkpt>
      <trkpt lat="44.378693103790283" lon="11.198501586914063">
        <ele>562</ele>
        <time>2004-12-08T09:28:24Z</time>
      </trkpt>
      <trkpt lat="44.378736019134521" lon="11.198458671569824">
        <ele>562</ele>
        <time>2004-12-08T09:28:29Z</time>
      </trkpt>
      <trkpt lat="44.378886222839355" lon="11.198351383209229">
        <ele>564</ele>
        <time>2004-12-08T09:28:49Z</time>
      </trkpt>
      <trkpt lat="44.379079341888428" lon="11.198222637176514">
        <ele>564</ele>
        <time>2004-12-08T09:29:06Z</time>
      </trkpt>
      <trkpt lat="44.379336833953857" lon="11.198158264160156">
        <ele>568</ele>
        <time>2004-12-08T09:29:29Z</time>
      </trkpt>
      <trkpt lat="44.379594326019287" lon="11.198179721832275">
        <ele>568</ele>
        <time>2004-12-08T09:29:55Z</time>
      </trkpt>
      <trkpt lat="44.379615783691406" lon="11.198179721832275">
        <ele>567</ele>
        <time>2004-12-08T09:29:57Z</time>
      </trkpt>
      <trkpt lat="44.379637241363525" lon="11.198158264160156">
        <ele>568</ele>
        <time>2004-12-08T09:30:00Z</time>
      </trkpt>
      <trkpt lat="44.379637241363525" lon="11.198050975799561">
        <ele>569</ele>
        <time>2004-12-08T09:30:07Z</time>
      </trkpt>
      <trkpt lat="44.379572868347168" lon="11.197729110717773">
        <ele>573</ele>
        <time>2004-12-08T09:30:30Z</time>
      </trkpt>
      <trkpt lat="44.379551410675049" lon="11.197621822357178">
        <ele>575</ele>
        <time>2004-12-08T09:30:39Z</time>
      </trkpt>
      <trkpt lat="44.379530036821961" lon="11.197385787963867">
        <ele>579</ele>
        <time>2004-12-08T09:30:50Z</time>
      </trkpt>
      <trkpt lat="44.379530036821961" lon="11.197342872619629">
        <ele>580</ele>
        <time>2004-12-08T09:30:52Z</time>
      </trkpt>
      <trkpt lat="44.379508495330811" lon="11.197192668914795">
        <ele>582</ele>
        <time>2004-12-08T09:30:58Z</time>
      </trkpt>
      <trkpt lat="44.379487037658691" lon="11.197106838226318">
        <ele>584</ele>
        <time>2004-12-08T09:31:12Z</time>
      </trkpt>
      <trkpt lat="44.379465579986572" lon="11.197042465209961">
        <ele>587</ele>
        <time>2004-12-08T09:31:31Z</time>
      </trkpt>
      <trkpt lat="44.379358291625977" lon="11.196892261505127">
        <ele>590</ele>
        <time>2004-12-08T09:31:54Z</time>
      </trkpt>
      <trkpt lat="44.379358291625977" lon="11.196892261505127">
        <ele>590</ele>
        <time>2004-12-08T09:31:55Z</time>
      </trkpt>
      <trkpt lat="44.3792724609375" lon="11.196935176849365">
        <ele>593</ele>
        <time>2004-12-08T09:32:03Z</time>
      </trkpt>
      <trkpt lat="44.37922946177423" lon="11.196999466046691">
        <ele>596</ele>
        <time>2004-12-08T09:32:13Z</time>
      </trkpt>
      <trkpt lat="44.379165172576904" lon="11.19706392288208">
        <ele>598</ele>
        <time>2004-12-08T09:32:29Z</time>
      </trkpt>
      <trkpt lat="44.379143714904785" lon="11.197042465209961">
        <ele>598</ele>
        <time>2004-12-08T09:32:55Z</time>
      </trkpt>
      <trkpt lat="44.379122341051698" lon="11.197021007537842">
        <ele>599</ele>
        <time>2004-12-08T09:33:33Z</time>
      </trkpt>
      <trkpt lat="44.379143714904785" lon="11.196978092193604">
        <ele>598</ele>
        <time>2004-12-08T09:34:13Z</time>
      </trkpt>
      <trkpt lat="44.379100799560547" lon="11.196956634521484">
        <ele>598</ele>
        <time>2004-12-08T09:34:16Z</time>
      </trkpt>
      <trkpt lat="44.378950595855713" lon="11.196870803833008">
        <ele>600</ele>
        <time>2004-12-08T09:34:29Z</time>
      </trkpt>
      <trkpt lat="44.378736019134521" lon="11.196656227111816">
        <ele>602</ele>
        <time>2004-12-08T09:34:49Z</time>
      </trkpt>
      <trkpt lat="44.378693103790283" lon="11.196420192718506">
        <ele>606</ele>
        <time>2004-12-08T09:35:07Z</time>
      </trkpt>
      <trkpt lat="44.378607273101807" lon="11.196269989013672">
        <ele>609</ele>
        <time>2004-12-08T09:35:17Z</time>
      </trkpt>
      <trkpt lat="44.378607273101807" lon="11.196248531341553">
        <ele>609</ele>
        <time>2004-12-08T09:35:18Z</time>
      </trkpt>
      <trkpt lat="44.378499984741211" lon="11.1960768699646">
        <ele>612</ele>
        <time>2004-12-08T09:35:34Z</time>
      </trkpt>
      <trkpt lat="44.378392696380615" lon="11.195905208587646">
        <ele>613</ele>
        <time>2004-12-08T09:35:51Z</time>
      </trkpt>
      <trkpt lat="44.378371238708496" lon="11.195776462554932">
        <ele>613</ele>
        <time>2004-12-08T09:36:00Z</time>
      </trkpt>
      <trkpt lat="44.378264034166932" lon="11.195261478424072">
        <ele>609</ele>
        <time>2004-12-08T09:36:21Z</time>
      </trkpt>
      <trkpt lat="44.378264034166932" lon="11.195218563079834">
        <ele>609</ele>
        <time>2004-12-08T09:36:23Z</time>
      </trkpt>
      <trkpt lat="44.378178119659424" lon="11.194982528686523">
        <ele>605</ele>
        <time>2004-12-08T09:36:31Z</time>
      </trkpt>
      <trkpt lat="44.378156661987305" lon="11.194918239489198">
        <ele>604</ele>
        <time>2004-12-08T09:36:33Z</time>
      </trkpt>
      <trkpt lat="44.377899169921875" lon="11.194210136309266">
        <ele>600</ele>
        <time>2004-12-08T09:36:57Z</time>
      </trkpt>
      <trkpt lat="44.377856338396668" lon="11.194145679473877">
        <ele>600</ele>
        <time>2004-12-08T09:36:59Z</time>
      </trkpt>
      <trkpt lat="44.377791881561279" lon="11.194059764966369">
        <ele>596</ele>
        <time>2004-12-08T09:37:02Z</time>
      </trkpt>
      <trkpt lat="44.377620220184326" lon="11.19382381439209">
        <ele>593</ele>
        <time>2004-12-08T09:37:09Z</time>
      </trkpt>
      <trkpt lat="44.377577304840088" lon="11.193737983703613">
        <ele>592</ele>
        <time>2004-12-08T09:37:11Z</time>
      </trkpt>
      <trkpt lat="44.377555763348937" lon="11.193695068359375">
        <ele>591</ele>
        <time>2004-12-08T09:37:12Z</time>
      </trkpt>
      <trkpt lat="44.377319812774658" lon="11.193115711212158">
        <ele>589</ele>
        <time>2004-12-08T09:37:25Z</time>
      </trkpt>
      <trkpt lat="44.377298438921571" lon="11.19307279586792">
        <ele>591</ele>
        <time>2004-12-08T09:37:27Z</time>
      </trkpt>
      <trkpt lat="44.377105236053467" lon="11.192750930786133">
        <ele>592</ele>
        <time>2004-12-08T09:37:46Z</time>
      </trkpt>
      <trkpt lat="44.377083778381348" lon="11.192665100097656">
        <ele>592</ele>
        <time>2004-12-08T09:38:08Z</time>
      </trkpt>
      <trkpt lat="44.377126693725586" lon="11.192214488983154">
        <ele>593</ele>
        <time>2004-12-08T09:48:33Z</time>
      </trkpt>
      <trkpt lat="44.377169609069824" lon="11.191699504852295">
        <ele>594</ele>
        <time>2004-12-08T09:48:59Z</time>
      </trkpt>
      <trkpt lat="44.377148235216737" lon="11.191420638933778">
        <ele>597</ele>
        <time>2004-12-08T09:49:10Z</time>
      </trkpt>
      <trkpt lat="44.377148235216737" lon="11.191270435228944">
        <ele>598</ele>
        <time>2004-12-08T09:49:19Z</time>
      </trkpt>
      <trkpt lat="44.377255439758301" lon="11.191055774688721">
        <ele>600</ele>
        <time>2004-12-08T09:49:38Z</time>
      </trkpt>
      <trkpt lat="44.377298438921571" lon="11.191055774688721">
        <ele>600</ele>
        <time>2004-12-08T09:49:43Z</time>
      </trkpt>
      <trkpt lat="44.377341270446777" lon="11.191034317016602">
        <ele>601</ele>
        <time>2004-12-08T09:49:47Z</time>
      </trkpt>
      <trkpt lat="44.377341270446777" lon="11.191034317016602">
        <ele>601</ele>
        <time>2004-12-08T09:49:48Z</time>
      </trkpt>
      <trkpt lat="44.377598762512207" lon="11.19107723236084">
        <ele>605</ele>
        <time>2004-12-08T09:50:04Z</time>
      </trkpt>
      <trkpt lat="44.377877712249756" lon="11.190969860181212">
        <ele>607</ele>
        <time>2004-12-08T09:50:25Z</time>
      </trkpt>
      <trkpt lat="44.378092288970947" lon="11.190841197967529">
        <ele>610</ele>
        <time>2004-12-08T09:50:45Z</time>
      </trkpt>
      <trkpt lat="44.378242492675781" lon="11.190733909606934">
        <ele>612</ele>
        <time>2004-12-08T09:50:58Z</time>
      </trkpt>
      <trkpt lat="44.378414237871766" lon="11.190454959869385">
        <ele>613</ele>
        <time>2004-12-08T09:51:16Z</time>
      </trkpt>
      <trkpt lat="44.378478527069092" lon="11.190090179443359">
        <ele>616</ele>
        <time>2004-12-08T09:51:34Z</time>
      </trkpt>
      <trkpt lat="44.378628730773926" lon="11.189768314361572">
        <ele>618</ele>
        <time>2004-12-08T09:51:55Z</time>
      </trkpt>
      <trkpt lat="44.378671562299132" lon="11.189703941345215">
        <ele>618</ele>
        <time>2004-12-08T09:51:59Z</time>
      </trkpt>
      <trkpt lat="44.378714561462402" lon="11.189661026000977">
        <ele>618</ele>
        <time>2004-12-08T09:52:03Z</time>
      </trkpt>
      <trkpt lat="44.378843307495117" lon="11.189210414886475">
        <ele>617</ele>
        <time>2004-12-08T09:52:24Z</time>
      </trkpt>
      <trkpt lat="44.378929138183594" lon="11.188781261444092">
        <ele>615</ele>
        <time>2004-12-08T09:52:41Z</time>
      </trkpt>
      <trkpt lat="44.379079341888428" lon="11.188437938690186">
        <ele>618</ele>
        <time>2004-12-08T09:52:56Z</time>
      </trkpt>
      <trkpt lat="44.37922946177423" lon="11.188223361968994">
        <ele>622</ele>
        <time>2004-12-08T09:53:06Z</time>
      </trkpt>
      <trkpt lat="44.379251003265381" lon="11.188201904296875">
        <ele>622</ele>
        <time>2004-12-08T09:53:07Z</time>
      </trkpt>
      <trkpt lat="44.379465579986572" lon="11.188309192657471">
        <ele>624</ele>
        <time>2004-12-08T09:53:23Z</time>
      </trkpt>
      <trkpt lat="44.379701614379883" lon="11.188373565673828">
        <ele>626</ele>
        <time>2004-12-08T09:53:38Z</time>
      </trkpt>
      <trkpt lat="44.37976598739624" lon="11.188416481018066">
        <ele>628</ele>
        <time>2004-12-08T09:53:44Z</time>
      </trkpt>
      <trkpt lat="44.379808902740479" lon="11.188480937853456">
        <ele>630</ele>
        <time>2004-12-08T09:53:48Z</time>
      </trkpt>
      <trkpt lat="44.379916191101074" lon="11.188502311706543">
        <ele>632</ele>
        <time>2004-12-08T09:53:56Z</time>
      </trkpt>
      <trkpt lat="44.380087936297059" lon="11.188588058575988">
        <ele>633</ele>
        <time>2004-12-08T09:54:11Z</time>
      </trkpt>
      <trkpt lat="44.380109310150146" lon="11.188523769378662">
        <ele>634</ele>
        <time>2004-12-08T09:54:28Z</time>
      </trkpt>
      <trkpt lat="44.380087936297059" lon="11.188459396362305">
        <ele>636</ele>
        <time>2004-12-08T09:54:36Z</time>
      </trkpt>
      <trkpt lat="44.379959106445313" lon="11.188287734985352">
        <ele>637</ele>
        <time>2004-12-08T09:54:53Z</time>
      </trkpt>
      <trkpt lat="44.379894733428955" lon="11.188223361968994">
        <ele>637</ele>
        <time>2004-12-08T09:55:02Z</time>
      </trkpt>
      <trkpt lat="44.379787361249328" lon="11.188051700592041">
        <ele>639</ele>
        <time>2004-12-08T09:55:23Z</time>
      </trkpt>
      <trkpt lat="44.379723072052002" lon="11.187987327575684">
        <ele>639</ele>
        <time>2004-12-08T09:55:39Z</time>
      </trkpt>
      <trkpt lat="44.379637241363525" lon="11.187923038378358">
        <ele>639</ele>
        <time>2004-12-08T09:55:54Z</time>
      </trkpt>
      <trkpt lat="44.379572868347168" lon="11.187665462493896">
        <ele>636</ele>
        <time>2003-09-28T08:15:23Z</time>
      </trkpt>
      <trkpt lat="44.379444122314453" lon="11.187665462493896">
        <ele>635</ele>
        <time>2004-03-14T09:06:00Z</time>
      </trkpt>
      <trkpt lat="44.379336833953857" lon="11.187686920166016">
        <ele>637</ele>
        <time>2004-03-14T09:06:15Z</time>
      </trkpt>
      <trkpt lat="44.37922946177423" lon="11.187729835510254">
        <ele>640</ele>
        <time>2004-03-14T09:06:30Z</time>
      </trkpt>
      <trkpt lat="44.379208087921143" lon="11.187729835510254">
        <ele>640</ele>
        <time>2004-03-14T09:06:32Z</time>
      </trkpt>
      <trkpt lat="44.379100799560547" lon="11.187751293182373">
        <ele>640</ele>
        <time>2004-03-14T09:06:42Z</time>
      </trkpt>
      <trkpt lat="44.378907680511475" lon="11.187794208526611">
        <ele>640</ele>
        <time>2004-03-14T09:07:01Z</time>
      </trkpt>
      <trkpt lat="44.378757476806641" lon="11.187923038378358">
        <ele>642</ele>
        <time>2004-03-14T09:07:19Z</time>
      </trkpt>
      <trkpt lat="44.378628730773926" lon="11.188008785247803">
        <ele>644</ele>
        <time>2004-03-14T09:07:39Z</time>
      </trkpt>
      <trkpt lat="44.378542900085449" lon="11.18807315826416">
        <ele>645</ele>
        <time>2004-03-14T09:07:50Z</time>
      </trkpt>
      <trkpt lat="44.378435611724854" lon="11.188201904296875">
        <ele>646</ele>
        <time>2004-03-14T09:08:10Z</time>
      </trkpt>
      <trkpt lat="44.378371238708496" lon="11.188309192657471">
        <ele>646</ele>
        <time>2004-03-14T09:08:25Z</time>
      </trkpt>
      <trkpt lat="44.378306865692139" lon="11.188266277313232">
        <ele>655</ele>
        <time>2005-02-05T09:51:39Z</time>
      </trkpt>
      <trkpt lat="44.378306865692139" lon="11.188287734985352">
        <ele>655</ele>
        <time>2005-02-05T09:52:12Z</time>
      </trkpt>
      <trkpt lat="44.378242492675781" lon="11.188459396362305">
        <ele>656</ele>
        <time>2005-02-05T09:52:28Z</time>
      </trkpt>
      <trkpt lat="44.378113662824035" lon="11.188609600067139">
        <ele>658</ele>
        <time>2005-02-05T09:52:47Z</time>
      </trkpt>
      <trkpt lat="44.378070831298828" lon="11.18863114155829">
        <ele>658</ele>
        <time>2005-02-05T09:53:08Z</time>
      </trkpt>
      <trkpt lat="44.377813339233398" lon="11.188738262280822">
        <ele>654</ele>
        <time>2005-02-05T09:53:22Z</time>
      </trkpt>
      <trkpt lat="44.37777042388916" lon="11.188738262280822">
        <ele>654</ele>
        <time>2005-02-05T09:53:23Z</time>
      </trkpt>
      <trkpt lat="44.377663135528564" lon="11.188759803771973">
        <ele>652</ele>
        <time>2005-02-05T09:53:25Z</time>
      </trkpt>
      <trkpt lat="44.37753438949585" lon="11.188781261444092">
        <ele>651</ele>
        <time>2005-02-05T09:53:27Z</time>
      </trkpt>
      <trkpt lat="44.377362728118896" lon="11.18882417678833">
        <ele>649</ele>
        <time>2005-02-05T09:53:30Z</time>
      </trkpt>
      <trkpt lat="44.377105236053467" lon="11.18882417678833">
        <ele>646</ele>
        <time>2005-02-05T09:53:34Z</time>
      </trkpt>
      <trkpt lat="44.376933574676514" lon="11.188802719116211">
        <ele>641</ele>
        <time>2005-02-05T09:53:38Z</time>
      </trkpt>
      <trkpt lat="44.376826286315918" lon="11.188759803771973">
        <ele>636</ele>
        <time>2005-02-05T09:53:42Z</time>
      </trkpt>
      <trkpt lat="44.376761913299561" lon="11.188910007476807">
        <ele>635</ele>
        <time>2005-02-05T09:53:47Z</time>
      </trkpt>
      <trkpt lat="44.376697540283203" lon="11.189103126525879">
        <ele>632</ele>
        <time>2005-02-05T09:53:52Z</time>
      </trkpt>
      <trkpt lat="44.376654624938965" lon="11.189146041870117">
        <ele>630</ele>
        <time>2005-02-05T09:53:54Z</time>
      </trkpt>
      <trkpt lat="44.376611709594727" lon="11.189189041033387">
        <ele>628</ele>
        <time>2005-02-05T09:53:56Z</time>
      </trkpt>
      <trkpt lat="44.376611709594727" lon="11.189231872558594">
        <ele>628</ele>
        <time>2005-02-05T09:54:06Z</time>
      </trkpt>
      <trkpt lat="44.376482963562012" lon="11.189296161755919">
        <ele>624</ele>
        <time>2005-02-05T09:54:11Z</time>
      </trkpt>
      <trkpt lat="44.376418590545654" lon="11.18931770324707">
        <ele>620</ele>
        <time>2005-02-05T09:54:13Z</time>
      </trkpt>
      <trkpt lat="44.376397132873535" lon="11.189339160919189">
        <ele>619</ele>
        <time>2005-02-05T09:54:14Z</time>
      </trkpt>
      <trkpt lat="44.376375675201416" lon="11.189339160919189">
        <ele>618</ele>
        <time>2005-02-05T09:54:16Z</time>
      </trkpt>
      <trkpt lat="44.376354217529297" lon="11.189403533935547">
        <ele>618</ele>
        <time>2005-02-05T09:54:37Z</time>
      </trkpt>
      <trkpt lat="44.376332759857178" lon="11.189382076263428">
        <ele>618</ele>
        <time>2005-02-05T09:54:42Z</time>
      </trkpt>
      <trkpt lat="44.376246929168701" lon="11.189382076263428">
        <ele>616</ele>
        <time>2005-02-05T09:54:47Z</time>
      </trkpt>
      <trkpt lat="44.376161098480225" lon="11.189360618591309">
        <ele>611</ele>
        <time>2005-02-05T09:54:50Z</time>
      </trkpt>
      <trkpt lat="44.376075267791748" lon="11.189360618591309">
        <ele>607</ele>
        <time>2005-02-05T09:54:53Z</time>
      </trkpt>
      <trkpt lat="44.376010894775391" lon="11.189360618591309">
        <ele>603</ele>
        <time>2005-02-05T09:54:55Z</time>
      </trkpt>
      <trkpt lat="44.375925064086914" lon="11.189360618591309">
        <ele>600</ele>
        <time>2005-02-05T09:54:58Z</time>
      </trkpt>
      <trkpt lat="44.375817775726318" lon="11.189339160919189">
        <ele>595</ele>
        <time>2005-02-05T09:55:01Z</time>
      </trkpt>
      <trkpt lat="44.375753402709961" lon="11.189339160919189">
        <ele>592</ele>
        <time>2005-02-05T09:55:03Z</time>
      </trkpt>
      <trkpt lat="44.37573186121881" lon="11.189339160919189">
        <ele>590</ele>
        <time>2005-02-05T09:55:04Z</time>
      </trkpt>
      <trkpt lat="44.375710487365723" lon="11.18931770324707">
        <ele>589</ele>
        <time>2005-02-05T09:55:19Z</time>
      </trkpt>
      <trkpt lat="44.375710487365723" lon="11.189296161755919">
        <ele>589</ele>
        <time>2005-02-05T09:55:34Z</time>
      </trkpt>
      <trkpt lat="44.375710487365723" lon="11.189103126525879">
        <ele>589</ele>
        <time>2005-02-05T09:55:46Z</time>
      </trkpt>
      <trkpt lat="44.375710487365723" lon="11.18908166885376">
        <ele>590</ele>
        <time>2005-02-05T09:55:47Z</time>
      </trkpt>
      <trkpt lat="44.375603199005127" lon="11.18882417678833">
        <ele>586</ele>
        <time>2005-02-05T09:55:59Z</time>
      </trkpt>
      <trkpt lat="44.37551736831665" lon="11.188652515411377">
        <ele>584</ele>
        <time>2005-02-05T09:56:05Z</time>
      </trkpt>
      <trkpt lat="44.375474536791444" lon="11.188673973083496">
        <ele>582</ele>
        <time>2005-02-05T09:56:08Z</time>
      </trkpt>
      <trkpt lat="44.375431537628174" lon="11.188781261444092">
        <ele>580</ele>
        <time>2005-02-05T09:56:11Z</time>
      </trkpt>
      <trkpt lat="44.375431537628174" lon="11.188910007476807">
        <ele>579</ele>
        <time>2005-02-05T09:56:14Z</time>
      </trkpt>
      <trkpt lat="44.375452995300293" lon="11.189017295837402">
        <ele>577</ele>
        <time>2005-02-05T09:56:16Z</time>
      </trkpt>
      <trkpt lat="44.375345706939697" lon="11.189231872558594">
        <ele>571</ele>
        <time>2005-02-05T09:56:20Z</time>
      </trkpt>
      <trkpt lat="44.375324165448546" lon="11.189253330230713">
        <ele>570</ele>
        <time>2005-02-05T09:56:21Z</time>
      </trkpt>
      <trkpt lat="44.375238418579102" lon="11.189403533935547">
        <ele>567</ele>
        <time>2005-02-05T09:56:24Z</time>
      </trkpt>
      <trkpt lat="44.375195503234863" lon="11.189746940508485">
        <ele>563</ele>
        <time>2005-02-05T09:56:30Z</time>
      </trkpt>
      <trkpt lat="44.375173961743712" lon="11.189811229705811">
        <ele>563</ele>
        <time>2005-02-05T09:56:31Z</time>
      </trkpt>
      <trkpt lat="44.375131130218506" lon="11.190025806427002">
        <ele>560</ele>
        <time>2005-02-05T09:56:36Z</time>
      </trkpt>
      <trkpt lat="44.375045299530029" lon="11.190240383148193">
        <ele>556</ele>
        <time>2005-02-05T09:56:41Z</time>
      </trkpt>
      <trkpt lat="44.375002384185791" lon="11.19032621383667">
        <ele>556</ele>
        <time>2005-02-05T09:56:43Z</time>
      </trkpt>
      <trkpt lat="44.374959468841553" lon="11.190369129180908">
        <ele>555</ele>
        <time>2005-02-05T09:56:45Z</time>
      </trkpt>
      <trkpt lat="44.374809265136719" lon="11.190519332885742">
        <ele>550</ele>
        <time>2005-02-05T09:56:49Z</time>
      </trkpt>
      <trkpt lat="44.374680519104004" lon="11.190648078918457">
        <ele>548</ele>
        <time>2005-02-05T09:56:56Z</time>
      </trkpt>
      <trkpt lat="44.374637603759766" lon="11.190626621246338">
        <ele>549</ele>
        <time>2005-02-05T09:57:33Z</time>
      </trkpt>
      <trkpt lat="44.374465858563781" lon="11.190733909606934">
        <ele>548</ele>
        <time>2005-02-05T09:57:44Z</time>
      </trkpt>
      <trkpt lat="44.374315738677979" lon="11.190905570983887">
        <ele>547</ele>
        <time>2005-02-05T09:57:53Z</time>
      </trkpt>
      <trkpt lat="44.374294281005859" lon="11.190905570983887">
        <ele>546</ele>
        <time>2005-02-05T09:57:58Z</time>
      </trkpt>
      <trkpt lat="44.373993873596191" lon="11.191120063886046">
        <ele>546</ele>
        <time>2005-02-05T09:58:17Z</time>
      </trkpt>
      <trkpt lat="44.373929500579834" lon="11.191163063049316">
        <ele>545</ele>
        <time>2005-02-05T09:58:20Z</time>
      </trkpt>
      <trkpt lat="44.373843669891357" lon="11.191141605377197">
        <ele>545</ele>
        <time>2005-02-05T09:58:26Z</time>
      </trkpt>
      <trkpt lat="44.373736381530762" lon="11.191141605377197">
        <ele>545</ele>
        <time>2005-02-05T09:58:41Z</time>
      </trkpt>
      <trkpt lat="44.373736381530762" lon="11.191163063049316">
        <ele>546</ele>
        <time>2005-02-05T09:58:53Z</time>
      </trkpt>
      <trkpt lat="44.373714923858643" lon="11.191227436065674">
        <ele>547</ele>
        <time>2005-02-05T09:59:04Z</time>
      </trkpt>
      <trkpt lat="44.373607635498047" lon="11.191442012786865">
        <ele>549</ele>
        <time>2005-02-05T09:59:21Z</time>
      </trkpt>
      <trkpt lat="44.373586177825928" lon="11.191484928131104">
        <ele>549</ele>
        <time>2005-02-05T09:59:23Z</time>
      </trkpt>
      <trkpt lat="44.373500263318419" lon="11.191549301147461">
        <ele>548</ele>
        <time>2005-02-05T09:59:36Z</time>
      </trkpt>
      <trkpt lat="44.373478889465332" lon="11.19157075881958">
        <ele>547</ele>
        <time>2005-02-05T09:59:42Z</time>
      </trkpt>
      <trkpt lat="44.373393058776855" lon="11.191463470458984">
        <ele>544</ele>
        <time>2005-02-05T09:59:53Z</time>
      </trkpt>
      <trkpt lat="44.373328685760498" lon="11.191356182098389">
        <ele>541</ele>
        <time>2005-02-05T10:00:01Z</time>
      </trkpt>
      <trkpt lat="44.37328577041626" lon="11.191291809082031">
        <ele>538</ele>
        <time>2005-02-05T10:00:04Z</time>
      </trkpt>
      <trkpt lat="44.373199939727783" lon="11.191291809082031">
        <ele>535</ele>
        <time>2005-02-05T10:00:07Z</time>
      </trkpt>
      <trkpt lat="44.373135566711426" lon="11.191270435228944">
        <ele>533</ele>
        <time>2005-02-05T10:00:09Z</time>
      </trkpt>
      <trkpt lat="44.373049736022949" lon="11.191205978393555">
        <ele>529</ele>
        <time>2005-02-05T10:00:13Z</time>
      </trkpt>
      <trkpt lat="44.37302827835083" lon="11.191184520721436">
        <ele>529</ele>
        <time>2005-02-05T10:00:14Z</time>
      </trkpt>
      <trkpt lat="44.37302827835083" lon="11.191163063049316">
        <ele>527</ele>
        <time>2005-02-05T10:00:16Z</time>
      </trkpt>
      <trkpt lat="44.373006820678711" lon="11.191163063049316">
        <ele>525</ele>
        <time>2005-02-05T10:00:25Z</time>
      </trkpt>
      <trkpt lat="44.372899532318115" lon="11.191270435228944">
        <ele>525</ele>
        <time>2005-02-05T10:00:32Z</time>
      </trkpt>
      <trkpt lat="44.372835159301758" lon="11.191291809082031">
        <ele>523</ele>
        <time>2005-02-05T10:00:36Z</time>
      </trkpt>
      <trkpt lat="44.372727870941162" lon="11.19131326675415">
        <ele>519</ele>
        <time>2005-02-05T10:00:43Z</time>
      </trkpt>
      <trkpt lat="44.372685039415956" lon="11.19133472442627">
        <ele>517</ele>
        <time>2005-02-05T10:00:45Z</time>
      </trkpt>
      <trkpt lat="44.372620582580566" lon="11.191592216491699">
        <ele>514</ele>
        <time>2005-02-05T10:00:50Z</time>
      </trkpt>
      <trkpt lat="44.372620582580566" lon="11.191956996917725">
        <ele>513</ele>
        <time>2005-02-05T10:00:59Z</time>
      </trkpt>
      <trkpt lat="44.372577667236328" lon="11.192343235015869">
        <ele>511</ele>
        <time>2005-02-05T10:01:13Z</time>
      </trkpt>
      <trkpt lat="44.372556209564209" lon="11.192364692687988">
        <ele>510</ele>
        <time>2005-02-05T10:07:48Z</time>
      </trkpt>
      <trkpt lat="44.372513294219971" lon="11.192450523376465">
        <ele>507</ele>
        <time>2005-02-05T10:07:53Z</time>
      </trkpt>
      <trkpt lat="44.372513294219971" lon="11.192450523376465">
        <ele>507</ele>
        <time>2005-02-05T10:07:54Z</time>
      </trkpt>
      <trkpt lat="44.372513294219971" lon="11.192450523376465">
        <ele>507</ele>
        <time>2005-02-05T10:07:58Z</time>
      </trkpt>
      <trkpt lat="44.372406005859375" lon="11.192493438720703">
        <ele>503</ele>
        <time>2005-02-05T10:08:05Z</time>
      </trkpt>
      <trkpt lat="44.372341632843018" lon="11.192493438720703">
        <ele>500</ele>
        <time>2005-02-05T10:08:09Z</time>
      </trkpt>
      <trkpt lat="44.37227725982666" lon="11.192471981048584">
        <ele>498</ele>
        <time>2005-02-05T10:08:12Z</time>
      </trkpt>
      <trkpt lat="44.372212886810303" lon="11.192450523376465">
        <ele>495</ele>
        <time>2005-02-05T10:08:16Z</time>
      </trkpt>
      <trkpt lat="44.372148513793945" lon="11.192450523376465">
        <ele>492</ele>
        <time>2005-02-05T10:08:19Z</time>
      </trkpt>
      <trkpt lat="44.371976936236024" lon="11.192450523376465">
        <ele>487</ele>
        <time>2005-02-05T10:08:27Z</time>
      </trkpt>
      <trkpt lat="44.371933937072754" lon="11.192450523376465">
        <ele>485</ele>
        <time>2005-02-05T10:08:30Z</time>
      </trkpt>
      <trkpt lat="44.371869564056396" lon="11.192514896392822">
        <ele>482</ele>
        <time>2005-02-05T10:08:35Z</time>
      </trkpt>
      <trkpt lat="44.371848106384277" lon="11.192536437883973">
        <ele>481</ele>
        <time>2005-02-05T10:08:38Z</time>
      </trkpt>
      <trkpt lat="44.37178373336792" lon="11.192665100097656">
        <ele>479</ele>
        <time>2005-02-05T10:08:44Z</time>
      </trkpt>
      <trkpt lat="44.371762275695801" lon="11.192729473114014">
        <ele>476</ele>
        <time>2005-02-05T10:08:47Z</time>
      </trkpt>
      <trkpt lat="44.371676361188293" lon="11.192750930786133">
        <ele>473</ele>
        <time>2005-02-05T10:08:52Z</time>
      </trkpt>
      <trkpt lat="44.371612071990967" lon="11.192708015441895">
        <ele>472</ele>
        <time>2005-02-05T10:08:56Z</time>
      </trkpt>
      <trkpt lat="44.371590614318848" lon="11.192686641588807">
        <ele>470</ele>
        <time>2005-02-05T10:08:58Z</time>
      </trkpt>
      <trkpt lat="44.371483325958252" lon="11.192643558606505">
        <ele>467</ele>
        <time>2005-02-05T10:09:04Z</time>
      </trkpt>
      <trkpt lat="44.371483325958252" lon="11.192600727081299">
        <ele>466</ele>
        <time>2005-02-05T10:10:39Z</time>
      </trkpt>
      <trkpt lat="44.371461868286133" lon="11.192557811737061">
        <ele>467</ele>
        <time>2005-02-05T10:10:56Z</time>
      </trkpt>
      <trkpt lat="44.371440410614014" lon="11.192514896392822">
        <ele>463</ele>
        <time>2005-02-05T10:10:59Z</time>
      </trkpt>
      <trkpt lat="44.371440410614014" lon="11.192493438720703">
        <ele>452</ele>
        <time>2005-02-05T10:11:00Z</time>
      </trkpt>
      <trkpt lat="44.371440410614014" lon="11.192471981048584">
        <ele>462</ele>
        <time>2005-02-05T10:11:27Z</time>
      </trkpt>
      <trkpt lat="44.371419036760926" lon="11.192343235015869">
        <ele>458</ele>
        <time>2005-02-05T10:11:34Z</time>
      </trkpt>
      <trkpt lat="44.371376037597656" lon="11.19232177734375">
        <ele>455</ele>
        <time>2005-02-05T10:11:37Z</time>
      </trkpt>
      <trkpt lat="44.371333122253418" lon="11.192300319671631">
        <ele>452</ele>
        <time>2005-02-05T10:11:42Z</time>
      </trkpt>
      <trkpt lat="44.37129020690918" lon="11.192278861999512">
        <ele>448</ele>
        <time>2005-02-05T10:11:49Z</time>
      </trkpt>
      <trkpt lat="44.37129020690918" lon="11.192257404327393">
        <ele>448</ele>
        <time>2005-02-05T10:11:50Z</time>
      </trkpt>
      <trkpt lat="44.371247291564941" lon="11.192235862836242">
        <ele>444</ele>
        <time>2005-02-05T10:11:57Z</time>
      </trkpt>
      <trkpt lat="44.371247291564941" lon="11.192235862836242">
        <ele>443</ele>
        <time>2005-02-05T10:11:59Z</time>
      </trkpt>
      <trkpt lat="44.371247291564941" lon="11.192214488983154">
        <ele>441</ele>
        <time>2005-02-05T10:12:19Z</time>
      </trkpt>
      <trkpt lat="44.371247291564941" lon="11.192150115966797">
        <ele>441</ele>
        <time>2005-02-05T10:12:42Z</time>
      </trkpt>
      <trkpt lat="44.371247291564941" lon="11.192085659131408">
        <ele>440</ele>
        <time>2005-02-05T10:13:01Z</time>
      </trkpt>
      <trkpt lat="44.371204376220703" lon="11.191978538408875">
        <ele>437</ele>
        <time>2005-02-05T10:13:33Z</time>
      </trkpt>
      <trkpt lat="44.371182918548584" lon="11.191978538408875">
        <ele>437</ele>
        <time>2005-02-05T10:13:34Z</time>
      </trkpt>
      <trkpt lat="44.371140003204346" lon="11.191978538408875">
        <ele>434</ele>
        <time>2005-02-05T10:13:36Z</time>
      </trkpt>
      <trkpt lat="44.371118461713195" lon="11.191956996917725">
        <ele>430</ele>
        <time>2005-02-05T10:13:48Z</time>
      </trkpt>
      <trkpt lat="44.371118461713195" lon="11.191828334704041">
        <ele>432</ele>
        <time>2005-02-05T10:14:02Z</time>
      </trkpt>
      <trkpt lat="44.371075630187988" lon="11.191742420196533">
        <ele>430</ele>
        <time>2005-02-05T10:14:16Z</time>
      </trkpt>
      <trkpt lat="44.371075630187988" lon="11.19157075881958">
        <ele>431</ele>
        <time>2005-02-05T10:14:32Z</time>
      </trkpt>
      <trkpt lat="44.371075630187988" lon="11.191420638933778">
        <ele>432</ele>
        <time>2005-02-05T10:14:50Z</time>
      </trkpt>
      <trkpt lat="44.371075630187988" lon="11.191399097442627">
        <ele>432</ele>
        <time>2005-02-05T10:14:56Z</time>
      </trkpt>
      <trkpt lat="44.371097087860107" lon="11.19133472442627">
        <ele>433</ele>
        <time>2005-02-05T10:15:02Z</time>
      </trkpt>
      <trkpt lat="44.371075630187988" lon="11.190948486328125">
        <ele>432</ele>
        <time>2005-02-05T10:15:16Z</time>
      </trkpt>
      <trkpt lat="44.370946884155273" lon="11.190411960706115">
        <ele>435</ele>
        <time>2005-02-05T10:15:39Z</time>
      </trkpt>
      <trkpt lat="44.370925426483154" lon="11.190154636278749">
        <ele>438</ele>
        <time>2005-02-05T10:15:53Z</time>
      </trkpt>
      <trkpt lat="44.370925426483154" lon="11.190133094787598">
        <ele>436</ele>
        <time>2005-02-05T10:16:11Z</time>
      </trkpt>
      <trkpt lat="44.370925426483154" lon="11.190111637115479">
        <ele>436</ele>
        <time>2005-02-05T10:16:47Z</time>
      </trkpt>
      <trkpt lat="44.370903968811035" lon="11.190090179443359">
        <ele>437</ele>
        <time>2005-02-05T10:17:15Z</time>
      </trkpt>
      <trkpt lat="44.370839595794678" lon="11.189982891082764">
        <ele>437</ele>
        <time>2003-03-22T09:31:56Z</time>
      </trkpt>
      <trkpt lat="44.37077522277832" lon="11.189918518066406">
        <ele>434</ele>
        <time>2003-03-22T09:31:58Z</time>
      </trkpt>
      <trkpt lat="44.370625019073486" lon="11.189746940508485">
        <ele>429</ele>
        <time>2003-03-22T09:32:02Z</time>
      </trkpt>
      <trkpt lat="44.370560562238097" lon="11.189682483673096">
        <ele>426</ele>
        <time>2003-03-22T09:32:04Z</time>
      </trkpt>
      <trkpt lat="44.37053918838501" lon="11.189661026000977">
        <ele>426</ele>
        <time>2003-03-22T09:32:05Z</time>
      </trkpt>
      <trkpt lat="44.370367527008057" lon="11.1895751953125">
        <ele>422</ele>
        <time>2003-03-22T09:32:09Z</time>
      </trkpt>
      <trkpt lat="44.370260238647461" lon="11.189532279968262">
        <ele>418</ele>
        <time>2003-03-22T09:32:12Z</time>
      </trkpt>
      <trkpt lat="44.370131492614746" lon="11.189446365460753">
        <ele>414</ele>
        <time>2003-03-22T09:32:15Z</time>
      </trkpt>
      <trkpt lat="44.370002662763" lon="11.189360618591309">
        <ele>412</ele>
        <time>2003-03-22T09:32:19Z</time>
      </trkpt>
      <trkpt lat="44.369981288909912" lon="11.189360618591309">
        <ele>411</ele>
        <time>2003-03-22T09:32:30Z</time>
      </trkpt>
      <trkpt lat="44.370002662763" lon="11.189382076263428">
        <ele>411</ele>
        <time>2003-03-22T09:33:06Z</time>
      </trkpt>
      <trkpt lat="44.369809627532959" lon="11.189360618591309">
        <ele>408</ele>
        <time>2003-03-22T09:33:21Z</time>
      </trkpt>
      <trkpt lat="44.369723796844482" lon="11.189382076263428">
        <ele>404</ele>
        <time>2003-03-22T09:33:24Z</time>
      </trkpt>
      <trkpt lat="44.369680881500244" lon="11.189446365460753">
        <ele>400</ele>
        <time>2003-03-22T09:33:26Z</time>
      </trkpt>
      <trkpt lat="44.369616508483887" lon="11.189532279968262">
        <ele>396</ele>
        <time>2003-03-22T09:33:29Z</time>
      </trkpt>
      <trkpt lat="44.369616508483887" lon="11.189553737640381">
        <ele>396</ele>
        <time>2003-03-22T09:33:30Z</time>
      </trkpt>
      <trkpt lat="44.369637966156006" lon="11.189661026000977">
        <ele>393</ele>
        <time>2003-03-22T09:33:33Z</time>
      </trkpt>
      <trkpt lat="44.369659423828125" lon="11.189682483673096">
        <ele>393</ele>
        <time>2003-03-22T09:33:34Z</time>
      </trkpt>
      <trkpt lat="44.369616508483887" lon="11.189961433410645">
        <ele>389</ele>
        <time>2003-03-22T09:33:46Z</time>
      </trkpt>
      <trkpt lat="44.369616508483887" lon="11.190090179443359">
        <ele>387</ele>
        <time>2003-03-22T09:33:54Z</time>
      </trkpt>
      <trkpt lat="44.369573593139648" lon="11.190562164410949">
        <ele>388</ele>
        <time>2003-03-22T09:34:09Z</time>
      </trkpt>
      <trkpt lat="44.369573593139648" lon="11.190605163574219">
        <ele>388</ele>
        <time>2003-03-22T09:34:11Z</time>
      </trkpt>
      <trkpt lat="44.369444763287902" lon="11.19081974029541">
        <ele>384</ele>
        <time>2003-03-22T09:34:17Z</time>
      </trkpt>
      <trkpt lat="44.369380474090576" lon="11.190927028656006">
        <ele>381</ele>
        <time>2003-03-22T09:34:20Z</time>
      </trkpt>
      <trkpt lat="44.369359016418457" lon="11.190969860181212">
        <ele>380</ele>
        <time>2003-03-22T09:34:21Z</time>
      </trkpt>
      <trkpt lat="44.36927318572998" lon="11.190969860181212">
        <ele>379</ele>
        <time>2003-03-22T09:34:24Z</time>
      </trkpt>
      <trkpt lat="44.369058609008789" lon="11.190905570983887">
        <ele>376</ele>
        <time>2003-03-22T09:34:29Z</time>
      </trkpt>
      <trkpt lat="44.368886863812804" lon="11.190905570983887">
        <ele>372</ele>
        <time>2003-03-22T09:34:33Z</time>
      </trkpt>
      <trkpt lat="44.368672370910645" lon="11.190991401672363">
        <ele>368</ele>
        <time>2003-03-22T09:34:40Z</time>
      </trkpt>
      <trkpt lat="44.368607997894287" lon="11.191012859344482">
        <ele>366</ele>
        <time>2003-03-22T09:34:42Z</time>
      </trkpt>
      <trkpt lat="44.368565082550049" lon="11.191012859344482">
        <ele>365</ele>
        <time>2003-03-22T09:34:43Z</time>
      </trkpt>
      <trkpt lat="44.368479335680604" lon="11.190905570983887">
        <ele>362</ele>
        <time>2003-03-22T09:34:48Z</time>
      </trkpt>
      <trkpt lat="44.368479335680604" lon="11.19086273945868">
        <ele>361</ele>
        <time>2003-03-22T09:34:49Z</time>
      </trkpt>
      <trkpt lat="44.368436336517334" lon="11.190690994262695">
        <ele>358</ele>
        <time>2003-03-22T09:34:53Z</time>
      </trkpt>
      <trkpt lat="44.368500709533691" lon="11.190562164410949">
        <ele>356</ele>
        <time>2003-03-22T09:34:58Z</time>
      </trkpt>
      <trkpt lat="44.368586540222168" lon="11.190411960706115">
        <ele>352</ele>
        <time>2003-03-22T09:35:03Z</time>
      </trkpt>
      <trkpt lat="44.368586540222168" lon="11.190390586853027">
        <ele>351</ele>
        <time>2003-03-22T09:35:04Z</time>
      </trkpt>
      <trkpt lat="44.368650913238525" lon="11.190261840820313">
        <ele>349</ele>
        <time>2003-03-22T09:35:08Z</time>
      </trkpt>
      <trkpt lat="44.368693828582764" lon="11.190133094787598">
        <ele>347</ele>
        <time>2003-03-22T09:35:11Z</time>
      </trkpt>
      <trkpt lat="44.368693828582764" lon="11.190025806427002">
        <ele>346</ele>
        <time>2003-03-22T09:35:13Z</time>
      </trkpt>
      <trkpt lat="44.36873666010797" lon="11.189618110656738">
        <ele>342</ele>
        <time>2003-03-22T09:35:19Z</time>
      </trkpt>
      <trkpt lat="44.36873666010797" lon="11.1895751953125">
        <ele>341</ele>
        <time>2003-03-22T09:35:20Z</time>
      </trkpt>
      <trkpt lat="44.36877965927124" lon="11.189446365460753">
        <ele>340</ele>
        <time>2003-03-22T09:35:24Z</time>
      </trkpt>
      <trkpt lat="44.36877965927124" lon="11.189403533935547">
        <ele>339</ele>
        <time>2003-03-22T09:35:26Z</time>
      </trkpt>
      <trkpt lat="44.368758201599121" lon="11.189360618591309">
        <ele>338</ele>
        <time>2003-03-22T09:35:28Z</time>
      </trkpt>
      <trkpt lat="44.36873666010797" lon="11.189167499542236">
        <ele>334</ele>
        <time>2003-03-22T09:35:34Z</time>
      </trkpt>
      <trkpt lat="44.368715286254883" lon="11.189038837328553">
        <ele>330</ele>
        <time>2003-03-22T09:35:38Z</time>
      </trkpt>
      <trkpt lat="44.368715286254883" lon="11.188910007476807">
        <ele>327</ele>
        <time>2003-03-22T09:35:42Z</time>
      </trkpt>
      <trkpt lat="44.368758201599121" lon="11.188759803771973">
        <ele>324</ele>
        <time>2003-03-22T09:35:46Z</time>
      </trkpt>
      <trkpt lat="44.368758201599121" lon="11.18863114155829">
        <ele>320</ele>
        <time>2003-03-22T09:35:49Z</time>
      </trkpt>
      <trkpt lat="44.368758201599121" lon="11.1885666847229">
        <ele>319</ele>
        <time>2003-03-22T09:35:51Z</time>
      </trkpt>
      <trkpt lat="44.36873666010797" lon="11.188266277313232">
        <ele>315</ele>
        <time>2003-03-22T09:35:57Z</time>
      </trkpt>
      <trkpt lat="44.368865489959717" lon="11.188158988952637">
        <ele>313</ele>
        <time>2003-03-22T09:36:01Z</time>
      </trkpt>
      <trkpt lat="44.368951320648193" lon="11.18783712387085">
        <ele>310</ele>
        <time>2003-03-22T09:36:08Z</time>
      </trkpt>
      <trkpt lat="44.368929862976074" lon="11.187686920166016">
        <ele>306</ele>
        <time>2003-03-22T09:36:11Z</time>
      </trkpt>
      <trkpt lat="44.368844032287598" lon="11.187493801116943">
        <ele>302</ele>
        <time>2003-03-22T09:36:15Z</time>
      </trkpt>
      <trkpt lat="44.368886863812804" lon="11.18736513890326">
        <ele>300</ele>
        <time>2003-03-22T09:36:20Z</time>
      </trkpt>
      <trkpt lat="44.368886863812804" lon="11.187300682067871">
        <ele>299</ele>
        <time>2003-03-22T09:36:23Z</time>
      </trkpt>
      <trkpt lat="44.368886863812804" lon="11.187300682067871">
        <ele>299</ele>
        <time>2003-03-22T09:36:24Z</time>
      </trkpt>
      <trkpt lat="44.368844032287598" lon="11.187236309051514">
        <ele>299</ele>
        <time>2003-03-22T09:36:44Z</time>
      </trkpt>
      <trkpt lat="44.369007060304284" lon="11.187134720385075">
        <ele>346</ele>
        <time>1989-12-31T00:00:00Z</time>
      </trkpt>
      <trkpt lat="44.368755267933011" lon="11.187170008197427">
        <ele>346</ele>
        <time>1989-12-31T00:00:00Z</time>
      </trkpt>
      <trkpt lat="44.36873666010797" lon="11.187214935198426">
        <ele>298</ele>
        <time>2004-12-08T10:43:05Z</time>
      </trkpt>
      <trkpt lat="44.368693828582764" lon="11.18757963180542">
        <ele>296</ele>
        <time>2004-12-08T10:43:13Z</time>
      </trkpt>
      <trkpt lat="44.368586540222168" lon="11.187708377838135">
        <ele>292</ele>
        <time>2004-12-08T10:43:18Z</time>
      </trkpt>
      <trkpt lat="44.36854362487793" lon="11.18781566619873">
        <ele>292</ele>
        <time>2004-12-08T10:43:20Z</time>
      </trkpt>
      <trkpt lat="44.368457794189453" lon="11.18803015910089">
        <ele>290</ele>
        <time>2004-12-08T10:43:24Z</time>
      </trkpt>
      <trkpt lat="44.368393421173096" lon="11.188223361968994">
        <ele>289</ele>
        <time>2004-12-08T10:43:27Z</time>
      </trkpt>
      <trkpt lat="44.368135929107666" lon="11.188437938690186">
        <ele>283</ele>
        <time>2004-12-08T10:43:31Z</time>
      </trkpt>
      <trkpt lat="44.368093013763428" lon="11.188502311706543">
        <ele>282</ele>
        <time>2004-12-08T10:43:32Z</time>
      </trkpt>
      <trkpt lat="44.367814064025879" lon="11.188695430755615">
        <ele>278</ele>
        <time>2004-12-08T10:43:37Z</time>
      </trkpt>
      <trkpt lat="44.367663860321045" lon="11.188781261444092">
        <ele>275</ele>
        <time>2004-12-08T10:43:41Z</time>
      </trkpt>
      <trkpt lat="44.367642402648926" lon="11.188802719116211">
        <ele>275</ele>
        <time>2004-12-08T10:43:42Z</time>
      </trkpt>
      <trkpt lat="44.367513740435243" lon="11.188802719116211">
        <ele>271</ele>
        <time>2004-12-08T10:43:46Z</time>
      </trkpt>
      <trkpt lat="44.367427825927734" lon="11.188802719116211">
        <ele>268</ele>
        <time>2004-12-08T10:43:48Z</time>
      </trkpt>
      <trkpt lat="44.367363536730409" lon="11.188609600067139">
        <ele>264</ele>
        <time>2004-12-08T10:43:55Z</time>
      </trkpt>
      <trkpt lat="44.367384910583496" lon="11.188352108001709">
        <ele>266</ele>
        <time>2004-12-08T10:48:01Z</time>
      </trkpt>
      <trkpt lat="44.367234706878662" lon="11.188373565673828">
        <ele>267</ele>
        <time>2004-12-08T10:48:09Z</time>
      </trkpt>
      <trkpt lat="44.367148876190186" lon="11.188931465148926">
        <ele>267</ele>
        <time>2004-12-08T10:48:25Z</time>
      </trkpt>
      <trkpt lat="44.367148876190186" lon="11.188995838165283">
        <ele>268</ele>
        <time>2004-12-08T10:48:27Z</time>
      </trkpt>
      <trkpt lat="44.367062961682677" lon="11.189189041033387">
        <ele>272</ele>
        <time>2004-12-08T10:48:36Z</time>
      </trkpt>
      <trkpt lat="44.366977214813232" lon="11.189360618591309">
        <ele>275</ele>
        <time>2004-12-08T10:48:46Z</time>
      </trkpt>
      <trkpt lat="44.366719722747803" lon="11.189510822296143">
        <ele>279</ele>
        <time>2004-12-08T10:49:04Z</time>
      </trkpt>
      <trkpt lat="44.366569519042969" lon="11.1895751953125">
        <ele>282</ele>
        <time>2004-12-08T10:49:15Z</time>
      </trkpt>
      <trkpt lat="44.366419315338135" lon="11.189982891082764">
        <ele>282</ele>
        <time>2005-02-05T10:26:50Z</time>
      </trkpt>
      <trkpt lat="44.366397941485047" lon="11.190133094787598">
        <ele>283</ele>
        <time>2005-02-05T10:27:01Z</time>
      </trkpt>
      <trkpt lat="44.366376399993896" lon="11.190218925476074">
        <ele>286</ele>
        <time>2005-02-05T10:27:07Z</time>
      </trkpt>
      <trkpt lat="44.366247737780213" lon="11.190648078918457">
        <ele>288</ele>
        <time>2005-02-05T10:27:36Z</time>
      </trkpt>
      <trkpt lat="44.366226196289063" lon="11.190712535753846">
        <ele>288</ele>
        <time>2005-02-05T10:27:40Z</time>
      </trkpt>
      <trkpt lat="44.366183280944824" lon="11.19086273945868">
        <ele>288</ele>
        <time>2005-02-05T10:28:11Z</time>
      </trkpt>
      <trkpt lat="44.366097534075379" lon="11.190969860181212">
        <ele>284</ele>
        <time>2005-02-05T10:29:28Z</time>
      </trkpt>
      <trkpt lat="44.366075992584229" lon="11.191034317016602">
        <ele>283</ele>
        <time>2005-02-05T10:29:32Z</time>
      </trkpt>
      <trkpt lat="44.366054534912109" lon="11.191163063049316">
        <ele>279</ele>
        <time>2005-02-05T10:29:38Z</time>
      </trkpt>
      <trkpt lat="44.36603307723999" lon="11.191163063049316">
        <ele>279</ele>
        <time>2005-02-05T10:29:39Z</time>
      </trkpt>
      <trkpt lat="44.36603307723999" lon="11.191291809082031">
        <ele>277</ele>
        <time>2005-02-05T10:29:41Z</time>
      </trkpt>
      <trkpt lat="44.36603307723999" lon="11.191677963361144">
        <ele>274</ele>
        <time>2005-02-05T10:29:47Z</time>
      </trkpt>
      <trkpt lat="44.365925788879395" lon="11.192686641588807">
        <ele>273</ele>
        <time>2005-02-05T10:29:52Z</time>
      </trkpt>
      <trkpt lat="44.365432262420654" lon="11.192879676818848">
        <ele>269</ele>
        <time>2005-02-05T10:30:12Z</time>
      </trkpt>
      <trkpt lat="44.365389263257384" lon="11.19307279586792">
        <ele>266</ele>
        <time>2005-02-05T10:30:21Z</time>
      </trkpt>
      <trkpt lat="44.365346431732178" lon="11.193137168884277">
        <ele>264</ele>
        <time>2005-02-05T10:30:24Z</time>
      </trkpt>
      <trkpt lat="44.36523905955255" lon="11.193287372589111">
        <ele>264</ele>
        <time>2005-02-05T10:30:31Z</time>
      </trkpt>
      <trkpt lat="44.364981735125184" lon="11.193995475769043">
        <ele>263</ele>
        <time>2005-02-05T10:31:01Z</time>
      </trkpt>
      <trkpt lat="44.36478853225708" lon="11.194446086883545">
        <ele>263</ele>
        <time>2005-02-05T10:31:25Z</time>
      </trkpt>
      <trkpt lat="44.364659786224365" lon="11.194531917572021">
        <ele>264</ele>
        <time>2005-02-05T10:31:51Z</time>
      </trkpt>
      <trkpt lat="44.364681160077453" lon="11.194553375244141">
        <ele>264</ele>
        <time>2005-02-05T10:32:25Z</time>
      </trkpt>
      <trkpt lat="44.364595413208008" lon="11.194596290588379">
        <ele>266</ele>
        <time>2005-02-05T10:33:21Z</time>
      </trkpt>
      <trkpt lat="44.364595413208008" lon="11.194617664441466">
        <ele>270</ele>
        <time>2005-02-05T10:33:33Z</time>
      </trkpt>
      <trkpt lat="44.364616870880127" lon="11.194768035784364">
        <ele>266</ele>
        <time>2005-02-05T10:33:51Z</time>
      </trkpt>
      <trkpt lat="44.364659786224365" lon="11.194918239489198">
        <ele>263</ele>
        <time>2005-02-05T10:34:23Z</time>
      </trkpt>
      <trkpt lat="44.364616870880127" lon="11.194982528686523">
        <ele>260</ele>
        <time>2005-02-05T10:34:47Z</time>
      </trkpt>
      <trkpt lat="44.364509582519531" lon="11.195347309112549">
        <ele>258</ele>
        <time>2005-02-05T10:35:56Z</time>
      </trkpt>
      <trkpt lat="44.364488124847412" lon="11.195540428161621">
        <ele>255</ele>
        <time>2005-02-05T10:36:17Z</time>
      </trkpt>
      <trkpt lat="44.364359378814697" lon="11.195797920227051">
        <ele>251</ele>
        <time>2005-02-05T10:36:32Z</time>
      </trkpt>
      <trkpt lat="44.364187717437744" lon="11.196184158325195">
        <ele>253</ele>
        <time>2005-02-05T10:37:20Z</time>
      </trkpt>
      <trkpt lat="44.364080429077148" lon="11.196291362866759">
        <ele>260</ele>
        <time>2005-02-05T10:48:22Z</time>
      </trkpt>
      <trkpt lat="44.364080429077148" lon="11.19631290435791">
        <ele>257</ele>
        <time>2005-02-05T10:48:24Z</time>
      </trkpt>
      <trkpt lat="44.364080429077148" lon="11.196355819702148">
        <ele>254</ele>
        <time>2005-02-05T10:48:28Z</time>
      </trkpt>
      <trkpt lat="44.363930225372314" lon="11.197793483734131">
        <ele>255</ele>
        <time>2005-02-05T10:48:35Z</time>
      </trkpt>
      <trkpt lat="44.363822937011719" lon="11.197772026062012">
        <ele>256</ele>
        <time>2005-02-05T10:48:43Z</time>
      </trkpt>
      <trkpt lat="44.363694190979004" lon="11.197772026062012">
        <ele>257</ele>
        <time>2005-02-05T10:48:59Z</time>
      </trkpt>
      <trkpt lat="44.36328649520874" lon="11.197643280029297">
        <ele>260</ele>
        <time>2005-02-05T10:49:23Z</time>
      </trkpt>
      <trkpt lat="44.36300746165216" lon="11.197578907012939">
        <ele>260</ele>
        <time>2005-02-05T10:49:39Z</time>
      </trkpt>
      <trkpt lat="44.362771511077881" lon="11.197557365521789">
        <ele>257</ele>
        <time>2005-02-05T10:49:55Z</time>
      </trkpt>
      <trkpt lat="44.362664222717285" lon="11.197514533996582">
        <ele>258</ele>
        <time>2005-02-05T10:50:08Z</time>
      </trkpt>
      <trkpt lat="44.36253547668457" lon="11.19732141494751">
        <ele>258</ele>
        <time>2005-02-05T10:50:28Z</time>
      </trkpt>
      <trkpt lat="44.362428188323975" lon="11.197256958112121">
        <ele>259</ele>
        <time>2005-02-05T10:50:43Z</time>
      </trkpt>
      <trkpt lat="44.362363815307617" lon="11.197278499603271">
        <ele>258</ele>
        <time>2005-02-05T10:51:02Z</time>
      </trkpt>
      <trkpt lat="44.362020492553711" lon="11.197750568389893">
        <ele>256</ele>
        <time>2005-02-05T10:51:20Z</time>
      </trkpt>
      <trkpt lat="44.361827373504639" lon="11.197965061292052">
        <ele>257</ele>
        <time>2005-02-05T10:51:35Z</time>
      </trkpt>
      <trkpt lat="44.361827373504639" lon="11.198029518127441">
        <ele>257</ele>
        <time>2005-02-05T10:51:46Z</time>
      </trkpt>
      <trkpt lat="44.361827373504639" lon="11.19807243347168">
        <ele>256</ele>
        <time>2005-02-05T10:52:02Z</time>
      </trkpt>
      <trkpt lat="44.3617844581604" lon="11.198093891143799">
        <ele>256</ele>
        <time>2005-02-05T10:52:16Z</time>
      </trkpt>
      <trkpt lat="44.361763000488281" lon="11.198115264996886">
        <ele>257</ele>
        <time>2005-02-05T10:52:30Z</time>
      </trkpt>
      <trkpt lat="44.361891662701964" lon="11.198415840044618">
        <ele>261</ele>
        <time>2004-12-08T11:00:38Z</time>
      </trkpt>
      <trkpt lat="44.361913204193115" lon="11.198458671569824">
        <ele>261</ele>
        <time>2004-12-08T11:00:39Z</time>
      </trkpt>
      <trkpt lat="44.362042034044862" lon="11.19856595993042">
        <ele>260</ele>
        <time>2004-12-08T11:00:42Z</time>
      </trkpt>
      <trkpt lat="44.362235069274902" lon="11.198887825012207">
        <ele>258</ele>
        <time>2004-12-08T11:00:53Z</time>
      </trkpt>
      <trkpt lat="44.362492561340332" lon="11.199102401733398">
        <ele>257</ele>
        <time>2004-12-08T11:01:04Z</time>
      </trkpt>
      <trkpt lat="44.362814426422119" lon="11.199338436126709">
        <ele>259</ele>
        <time>2004-12-08T11:01:17Z</time>
      </trkpt>
      <trkpt lat="44.363372325897217" lon="11.199531638994813">
        <ele>261</ele>
        <time>2004-12-08T11:01:36Z</time>
      </trkpt>
      <trkpt lat="44.363436698913574" lon="11.199510097503662">
        <ele>261</ele>
        <time>2004-12-08T11:01:42Z</time>
      </trkpt>
      <trkpt lat="44.363479614257813" lon="11.199531638994813">
        <ele>261</ele>
        <time>2004-12-08T11:01:46Z</time>
      </trkpt>
      <trkpt lat="44.363501071929932" lon="11.199531638994813">
        <ele>260</ele>
        <time>2004-12-08T11:01:54Z</time>
      </trkpt>
      <trkpt lat="44.363608360290527" lon="11.199724674224854">
        <ele>259</ele>
        <time>2004-12-08T11:02:01Z</time>
      </trkpt>
      <trkpt lat="44.363608360290527" lon="11.200003623962402">
        <ele>256</ele>
        <time>2004-12-08T11:02:05Z</time>
      </trkpt>
      <trkpt lat="44.363629817962646" lon="11.200346862897277">
        <ele>253</ele>
        <time>2004-12-08T11:02:10Z</time>
      </trkpt>
      <trkpt lat="44.363694190979004" lon="11.200733184814453">
        <ele>252</ele>
        <time>2004-12-08T11:02:19Z</time>
      </trkpt>
      <trkpt lat="44.363715564832091" lon="11.201054966077209">
        <ele>253</ele>
        <time>2004-12-08T11:02:29Z</time>
      </trkpt>
      <trkpt lat="44.363694190979004" lon="11.201162338256836">
        <ele>252</ele>
        <time>2004-12-08T11:02:31Z</time>
      </trkpt>
      <trkpt lat="44.363715564832091" lon="11.201376914978027">
        <ele>246</ele>
        <time>2004-12-08T11:02:35Z</time>
      </trkpt>
      <trkpt lat="44.3638014793396" lon="11.201655864715576">
        <ele>242</ele>
        <time>2004-12-08T11:02:40Z</time>
      </trkpt>
      <trkpt lat="44.363887310028076" lon="11.201870441436768">
        <ele>237</ele>
        <time>2004-12-08T11:02:43Z</time>
      </trkpt>
      <trkpt lat="44.363994598388672" lon="11.202106475830078">
        <ele>234</ele>
        <time>2004-12-08T11:02:46Z</time>
      </trkpt>
      <trkpt lat="44.364101886749268" lon="11.202342510223389">
        <ele>231</ele>
        <time>2004-12-08T11:02:49Z</time>
      </trkpt>
      <trkpt lat="44.364123260602355" lon="11.20255708694458">
        <ele>227</ele>
        <time>2004-12-08T11:02:52Z</time>
      </trkpt>
      <trkpt lat="44.364101886749268" lon="11.202728664502501">
        <ele>226</ele>
        <time>2004-12-08T11:02:54Z</time>
      </trkpt>
      <trkpt lat="44.364080429077148" lon="11.20281457901001">
        <ele>215</ele>
        <time>2005-02-05T10:57:27Z</time>
      </trkpt>
      <trkpt lat="44.363994598388672" lon="11.202707290649414">
        <ele>214</ele>
        <time>2005-02-05T10:57:31Z</time>
      </trkpt>
      <trkpt lat="44.363930225372314" lon="11.202664375305176">
        <ele>212</ele>
        <time>2005-02-05T10:57:33Z</time>
      </trkpt>
      <trkpt lat="44.363887310028076" lon="11.202900409698486">
        <ele>208</ele>
        <time>2005-02-05T10:57:37Z</time>
      </trkpt>
      <trkpt lat="44.363865936174989" lon="11.203029239550233">
        <ele>205</ele>
        <time>2005-02-05T10:57:39Z</time>
      </trkpt>
      <trkpt lat="44.363844394683838" lon="11.203222274780273">
        <ele>199</ele>
        <time>2005-02-05T10:57:42Z</time>
      </trkpt>
      <trkpt lat="44.363844394683838" lon="11.203265190124512">
        <ele>199</ele>
        <time>2005-02-05T10:57:43Z</time>
      </trkpt>
      <trkpt lat="44.3638014793396" lon="11.203393936157227">
        <ele>196</ele>
        <time>2005-02-05T10:57:46Z</time>
      </trkpt>
      <trkpt lat="44.3638014793396" lon="11.203436935320497">
        <ele>195</ele>
        <time>2005-02-05T10:57:49Z</time>
      </trkpt>
      <trkpt lat="44.363822937011719" lon="11.203458309173584">
        <ele>194</ele>
        <time>2005-02-05T10:57:51Z</time>
      </trkpt>
      <trkpt lat="44.363865936174989" lon="11.203587139025331">
        <ele>194</ele>
        <time>2005-02-05T10:57:57Z</time>
      </trkpt>
      <trkpt lat="44.363887310028076" lon="11.203629970550537">
        <ele>193</ele>
        <time>2005-02-05T10:58:15Z</time>
      </trkpt>
      <trkpt lat="44.363844394683838" lon="11.203629970550537">
        <ele>193</ele>
        <time>2005-02-05T10:59:02Z</time>
      </trkpt>
      <trkpt lat="44.363865936174989" lon="11.203694259747863">
        <ele>193</ele>
        <time>2005-02-05T10:59:05Z</time>
      </trkpt>
      <trkpt lat="44.363887310028076" lon="11.203866004943848">
        <ele>188</ele>
        <time>2005-02-05T10:59:08Z</time>
      </trkpt>
      <trkpt lat="44.363887310028076" lon="11.204037666320801">
        <ele>184</ele>
        <time>2005-02-05T10:59:11Z</time>
      </trkpt>
      <trkpt lat="44.363908767700195" lon="11.204145038500428">
        <ele>181</ele>
        <time>2005-02-05T10:59:13Z</time>
      </trkpt>
      <trkpt lat="44.363908767700195" lon="11.204273700714111">
        <ele>177</ele>
        <time>2005-02-05T10:59:15Z</time>
      </trkpt>
      <trkpt lat="44.363908767700195" lon="11.204423904418945">
        <ele>175</ele>
        <time>2005-02-05T10:59:17Z</time>
      </trkpt>
      <trkpt lat="44.363908767700195" lon="11.204552734270692">
        <ele>168</ele>
        <time>2005-02-05T10:59:19Z</time>
      </trkpt>
      <trkpt lat="44.363908767700195" lon="11.204659938812256">
        <ele>164</ele>
        <time>2005-02-05T10:59:20Z</time>
      </trkpt>
      <trkpt lat="44.363822937011719" lon="11.204981803894043">
        <ele>157</ele>
        <time>2005-02-05T10:59:23Z</time>
      </trkpt>
      <trkpt lat="44.36378002166748" lon="11.205132007598877">
        <ele>152</ele>
        <time>2005-02-05T10:59:25Z</time>
      </trkpt>
      <trkpt lat="44.363737106323242" lon="11.205153465270996">
        <ele>152</ele>
        <time>2005-02-05T10:59:30Z</time>
      </trkpt>
      <trkpt lat="44.363458240404725" lon="11.204810058698058">
        <ele>151</ele>
        <time>2005-02-05T10:59:45Z</time>
      </trkpt>
      <trkpt lat="44.363265037536621" lon="11.204531192779541">
        <ele>149</ele>
        <time>2005-02-05T10:59:52Z</time>
      </trkpt>
      <trkpt lat="44.363136291503906" lon="11.204423904418945">
        <ele>144</ele>
        <time>2005-02-05T10:59:56Z</time>
      </trkpt>
      <trkpt lat="44.363093376159668" lon="11.204380989074707">
        <ele>142</ele>
        <time>2005-02-05T11:00:23Z</time>
      </trkpt>
      <trkpt lat="44.36305046081543" lon="11.204681396484375">
        <ele>138</ele>
        <time>2005-02-05T11:00:29Z</time>
      </trkpt>
      <trkpt lat="44.363029003143311" lon="11.205089092254639">
        <ele>135</ele>
        <time>2005-02-05T11:00:37Z</time>
      </trkpt>
      <trkpt lat="44.363071918487549" lon="11.205196380615234">
        <ele>136</ele>
        <time>2005-02-05T11:00:44Z</time>
      </trkpt>
      <trkpt lat="44.363093376159668" lon="11.205260837450624">
        <ele>136</ele>
        <time>2005-02-05T11:00:47Z</time>
      </trkpt>
      <trkpt lat="44.363350868225098" lon="11.20551816187799">
        <ele>137</ele>
        <time>2005-02-05T11:01:03Z</time>
      </trkpt>
      <trkpt lat="44.363350868225098" lon="11.205582618713379">
        <ele>137</ele>
        <time>2005-02-05T11:01:05Z</time>
      </trkpt>
      <trkpt lat="44.363265037536621" lon="11.205625534057617">
        <ele>136</ele>
        <time>2005-02-05T11:01:15Z</time>
      </trkpt>
      <trkpt lat="44.363308036699891" lon="11.205646991729736">
        <ele>136</ele>
        <time>2005-02-05T11:01:31Z</time>
      </trkpt>
      <trkpt lat="44.363329410552979" lon="11.205625534057617">
        <ele>136</ele>
        <time>2005-02-05T11:01:49Z</time>
      </trkpt>
      <trkpt lat="44.363372325897217" lon="11.205668365582824">
        <ele>136</ele>
        <time>2005-02-05T11:02:01Z</time>
      </trkpt>
      <trkpt lat="44.363458240404725" lon="11.205818736925721">
        <ele>133</ele>
        <time>2005-02-05T11:02:12Z</time>
      </trkpt>
      <trkpt lat="44.36354398727417" lon="11.206119060516357">
        <ele>131</ele>
        <time>2005-02-05T11:02:27Z</time>
      </trkpt>
      <trkpt lat="44.363629817962646" lon="11.206355094909668">
        <ele>129</ele>
        <time>2005-02-05T11:02:32Z</time>
      </trkpt>
      <trkpt lat="44.363951683044434" lon="11.207234859466553">
        <ele>127</ele>
        <time>2005-02-05T11:02:46Z</time>
      </trkpt>
      <trkpt lat="44.364187717437744" lon="11.207899963483214">
        <ele>127</ele>
        <time>2005-02-05T11:02:59Z</time>
      </trkpt>
      <trkpt lat="44.364380836486816" lon="11.208415031433105">
        <ele>124</ele>
        <time>2005-02-05T11:03:08Z</time>
      </trkpt>
      <trkpt lat="44.364488124847412" lon="11.208758438006043">
        <ele>120</ele>
        <time>2005-02-05T11:03:12Z</time>
      </trkpt>
      <trkpt lat="44.364595413208008" lon="11.209080219268799">
        <ele>114</ele>
        <time>2005-02-05T11:03:15Z</time>
      </trkpt>
      <trkpt lat="44.364702701568604" lon="11.209423458203673">
        <ele>110</ele>
        <time>2005-02-05T11:03:18Z</time>
      </trkpt>
      <trkpt lat="44.364917278289795" lon="11.210024440661073">
        <ele>117</ele>
        <time>2003-09-28T10:03:00Z</time>
      </trkpt>
      <trkpt lat="44.365024566650391" lon="11.210281765088439">
        <ele>111</ele>
        <time>2004-12-08T11:05:25Z</time>
      </trkpt>
      <trkpt lat="44.36504602432251" lon="11.210432136431336">
        <ele>111</ele>
        <time>2004-12-08T11:05:30Z</time>
      </trkpt>
      <trkpt lat="44.36523905955255" lon="11.211097240447998">
        <ele>114</ele>
        <time>2004-12-08T11:05:44Z</time>
      </trkpt>
      <trkpt lat="44.365518093109131" lon="11.211934089660645">
        <ele>117</ele>
        <time>2004-12-08T11:06:00Z</time>
      </trkpt>
      <trkpt lat="44.365775585174561" lon="11.212770938873291">
        <ele>120</ele>
        <time>2004-12-08T11:06:15Z</time>
      </trkpt>
      <trkpt lat="44.366140365600586" lon="11.213457584381104">
        <ele>122</ele>
        <time>2004-12-08T11:06:27Z</time>
      </trkpt>
      <trkpt lat="44.366397941485047" lon="11.213715076446533">
        <ele>123</ele>
        <time>2004-12-08T11:06:33Z</time>
      </trkpt>
      <trkpt lat="44.367341995239258" lon="11.213972568511963">
        <ele>121</ele>
        <time>2004-12-08T11:06:48Z</time>
      </trkpt>
      <trkpt lat="44.367492198944092" lon="11.213994026184082">
        <ele>120</ele>
        <time>2004-12-08T11:06:50Z</time>
      </trkpt>
      <trkpt lat="44.368393421173096" lon="11.214659214019775">
        <ele>120</ele>
        <time>2004-12-08T11:07:05Z</time>
      </trkpt>
      <trkpt lat="44.369187438860536" lon="11.215775012969971">
        <ele>123</ele>
        <time>2004-12-08T11:07:24Z</time>
      </trkpt>
      <trkpt lat="44.37002420425415" lon="11.216933727264404">
        <ele>125</ele>
        <time>2004-12-08T11:07:45Z</time>
      </trkpt>
      <trkpt lat="44.370303237810731" lon="11.217341423034668">
        <ele>126</ele>
        <time>2004-12-08T11:07:52Z</time>
      </trkpt>
      <trkpt lat="44.370410358533263" lon="11.217749118804932">
        <ele>126</ele>
        <time>2004-12-08T11:07:57Z</time>
      </trkpt>
      <trkpt lat="44.370603561401367" lon="11.219229698181152">
        <ele>122</ele>
        <time>2004-12-08T11:08:11Z</time>
      </trkpt>
      <trkpt lat="44.371075630187988" lon="11.220581531524658">
        <ele>119</ele>
        <time>2004-12-08T11:08:23Z</time>
      </trkpt>
      <trkpt lat="44.371976936236024" lon="11.221954822540283">
        <ele>119</ele>
        <time>2004-12-08T11:08:40Z</time>
      </trkpt>
      <trkpt lat="44.373006820678711" lon="11.223113536834717">
        <ele>120</ele>
        <time>2004-12-08T11:08:57Z</time>
      </trkpt>
      <trkpt lat="44.373800838366151" lon="11.224014759063721">
        <ele>121</ele>
        <time>2004-12-08T11:09:10Z</time>
      </trkpt>
      <trkpt lat="44.374616062268615" lon="11.225109100341797">
        <ele>121</ele>
        <time>2004-12-08T11:09:27Z</time>
      </trkpt>
      <trkpt lat="44.375581741333008" lon="11.226139068603516">
        <ele>121</ele>
        <time>2004-12-08T11:09:46Z</time>
      </trkpt>
      <trkpt lat="44.376397132873535" lon="11.227576732635498">
        <ele>123</ele>
        <time>2004-12-08T11:10:06Z</time>
      </trkpt>
      <trkpt lat="44.377105236053467" lon="11.229314804077148">
        <ele>122</ele>
        <time>2004-12-08T11:10:27Z</time>
      </trkpt>
      <trkpt lat="44.377920627593994" lon="11.230409061536193">
        <ele>122</ele>
        <time>2004-12-08T11:10:44Z</time>
      </trkpt>
      <trkpt lat="44.379186630249023" lon="11.231567859649658">
        <ele>123</ele>
        <time>2004-12-08T11:11:07Z</time>
      </trkpt>
      <trkpt lat="44.379937564954162" lon="11.232190132141113">
        <ele>124</ele>
        <time>2004-12-08T11:11:21Z</time>
      </trkpt>
      <trkpt lat="44.380903160199523" lon="11.233241641893983">
        <ele>125</ele>
        <time>2004-12-08T11:11:42Z</time>
      </trkpt>
      <trkpt lat="44.381847381591797" lon="11.234228610992432">
        <ele>124</ele>
        <time>2004-12-08T11:12:00Z</time>
      </trkpt>
      <trkpt lat="44.38326358795166" lon="11.235666275024414">
        <ele>124</ele>
        <time>2004-12-08T11:12:26Z</time>
      </trkpt>
      <trkpt lat="44.384379386901855" lon="11.236352920532227">
        <ele>125</ele>
        <time>2004-12-08T11:12:46Z</time>
      </trkpt>
      <trkpt lat="44.385538101196289" lon="11.237339973449707">
        <ele>125</ele>
        <time>2004-12-08T11:13:07Z</time>
      </trkpt>
      <trkpt lat="44.386417865753174" lon="11.238670265302062">
        <ele>123</ele>
        <time>2004-12-08T11:13:26Z</time>
      </trkpt>
      <trkpt lat="44.387276172637939" lon="11.240365505218506">
        <ele>123</ele>
        <time>2004-12-08T11:13:47Z</time>
      </trkpt>
      <trkpt lat="44.387490665540099" lon="11.241695880889893">
        <ele>125</ele>
        <time>2004-12-08T11:14:02Z</time>
      </trkpt>
      <trkpt lat="44.387555122375488" lon="11.242468440905213">
        <ele>127</ele>
        <time>2004-12-08T11:14:13Z</time>
      </trkpt>
      <trkpt lat="44.387662410736084" lon="11.24276876449585">
        <ele>127</ele>
        <time>2004-12-08T11:14:18Z</time>
      </trkpt>
      <trkpt lat="44.388477802276611" lon="11.243798732757568">
        <ele>126</ele>
        <time>2004-12-08T11:14:36Z</time>
      </trkpt>
      <trkpt lat="44.389078617095947" lon="11.2445068359375">
        <ele>127</ele>
        <time>2004-12-08T11:14:48Z</time>
      </trkpt>
      <trkpt lat="44.389443397521973" lon="11.245021820068359">
        <ele>125</ele>
        <time>2004-12-08T11:14:55Z</time>
      </trkpt>
      <trkpt lat="44.390237331390381" lon="11.245450973510742">
        <ele>123</ele>
        <time>2004-12-08T11:15:06Z</time>
      </trkpt>
      <trkpt lat="44.390559196472168" lon="11.245622634887695">
        <ele>123</ele>
        <time>2004-12-08T11:15:11Z</time>
      </trkpt>
      <trkpt lat="44.390666484832764" lon="11.245901584625244">
        <ele>123</ele>
        <time>2004-12-08T11:15:15Z</time>
      </trkpt>
      <trkpt lat="44.39100980758667" lon="11.24624490737915">
        <ele>122</ele>
        <time>2004-12-08T11:15:23Z</time>
      </trkpt>
      <trkpt lat="44.391074180603027" lon="11.246201992034912">
        <ele>122</ele>
        <time>2004-12-08T11:15:24Z</time>
      </trkpt>
      <trkpt lat="44.39128884114325" lon="11.246073162183166">
        <ele>122</ele>
        <time>2004-12-08T11:15:28Z</time>
      </trkpt>
      <trkpt lat="44.391610622406006" lon="11.246073162183166">
        <ele>123</ele>
        <time>2004-12-08T11:15:33Z</time>
      </trkpt>
      <trkpt lat="44.392619132995605" lon="11.24650239944458">
        <ele>124</ele>
        <time>2004-12-08T11:15:50Z</time>
      </trkpt>
      <trkpt lat="44.39274787902832" lon="11.246523940935731">
        <ele>124</ele>
        <time>2004-12-08T11:15:52Z</time>
      </trkpt>
      <trkpt lat="44.392876625061035" lon="11.246523940935731">
        <ele>124</ele>
        <time>2004-12-08T11:15:54Z</time>
      </trkpt>
      <trkpt lat="44.393692016601563" lon="11.246910095214844">
        <ele>124</ele>
        <time>2004-12-08T11:16:12Z</time>
      </trkpt>
      <trkpt lat="44.393734931945801" lon="11.246910095214844">
        <ele>123</ele>
        <time>2004-12-08T11:16:13Z</time>
      </trkpt>
      <trkpt lat="44.393799304962158" lon="11.246738433837891">
        <ele>123</ele>
        <time>2004-12-08T11:16:18Z</time>
      </trkpt>
      <trkpt lat="44.393906593322754" lon="11.246180534362793">
        <ele>124</ele>
        <time>2004-12-08T11:16:30Z</time>
      </trkpt>
    </trkseg>
  </trk>

  <trk>
    <name>Percorso 002</name>
    <trkseg>
      <trkpt lat="44.379122341051698" lon="11.197021007537842">
        <ele>608</ele>
        <time>1989-12-31T00:00:00Z</time>
      </trkpt>
      <trkpt lat="44.379100799560547" lon="11.197085380554199">
        <ele>608</ele>
        <time>2005-02-05T09:23:30Z</time>
      </trkpt>
      <trkpt lat="44.379122341051698" lon="11.197214126586914">
        <ele>608</ele>
        <time>2005-02-05T09:24:12Z</time>
      </trkpt>
      <trkpt lat="44.379122341051698" lon="11.197214126586914">
        <ele>608</ele>
        <time>2005-02-05T09:24:20Z</time>
      </trkpt>
      <trkpt lat="44.379143714904785" lon="11.197364330291748">
        <ele>604</ele>
        <time>2005-02-05T09:24:28Z</time>
      </trkpt>
      <trkpt lat="44.379165172576904" lon="11.197493076324463">
        <ele>601</ele>
        <time>2005-02-05T09:24:34Z</time>
      </trkpt>
      <trkpt lat="44.379165172576904" lon="11.197578907012939">
        <ele>597</ele>
        <time>2005-02-05T09:24:37Z</time>
      </trkpt>
      <trkpt lat="44.379165172576904" lon="11.197621822357178">
        <ele>594</ele>
        <time>2005-02-05T09:24:39Z</time>
      </trkpt>
      <trkpt lat="44.379186630249023" lon="11.197643280029297">
        <ele>593</ele>
        <time>2005-02-05T09:24:53Z</time>
      </trkpt>
      <trkpt lat="44.37922946177423" lon="11.197621822357178">
        <ele>593</ele>
        <time>2005-02-05T09:25:05Z</time>
      </trkpt>
      <trkpt lat="44.3792724609375" lon="11.197578907012939">
        <ele>594</ele>
        <time>2005-02-05T09:25:17Z</time>
      </trkpt>
      <trkpt lat="44.379293918609619" lon="11.197750568389893">
        <ele>590</ele>
        <time>2005-02-05T09:25:21Z</time>
      </trkpt>
      <trkpt lat="44.379315376281738" lon="11.197836399078369">
        <ele>587</ele>
        <time>2005-02-05T09:25:23Z</time>
      </trkpt>
      <trkpt lat="44.379508495330811" lon="11.197836399078369">
        <ele>583</ele>
        <time>2005-02-05T09:25:28Z</time>
      </trkpt>
      <trkpt lat="44.379530036821961" lon="11.19781494140625">
        <ele>583</ele>
        <time>2005-02-05T09:25:29Z</time>
      </trkpt>
      <trkpt lat="44.379572868347168" lon="11.197729110717773">
        <ele>583</ele>
        <time>1989-12-31T00:00:00Z</time>
      </trkpt>
    </trkseg>
  </trk>

</gpx>
